GFSSGP_prec_cthk_000.txt.gz
RH
33 25 10 15 36 28 40 49 62 56 55 62 59 63 66 68 60 72 76 70 66 63 56 52 49 44 41 39 40 41 39 36 33 32 27 23 22 17 14 15 15 14 14 13 13 11 10 9 10
31 23 14 14 27 32 46 56 63 67 66 64 60 62 64 68 62 63 69 61 57 57 55 50 45 43 41 39 38 37 35 30 27 24 21 20 17 12 11 10 10 12 15 15 11 9 7 7 8
29 28 21 26 26 30 52 55 59 62 67 67 60 64 65 69 60 56 61 57 58 62 55 46 43 42 40 36 32 28 27 25 23 20 19 16 11 10 10 10 12 16 17 16 13 11 10 10 10
33 33 37 37 36 38 43 49 56 54 63 62 56 51 50 43 43 47 55 60 59 52 46 40 39 39 30 24 24 24 22 20 19 18 14 10 10 11 11 14 17 18 18 18 17 17 15 15 15
30 37 30 43 48 46 49 52 57 50 58 57 51 52 48 50 43 44 49 48 44 36 33 29 25 19 20 21 21 19 18 17 15 11 9 10 13 15 13 15 17 19 20 23 22 24 24 25 24
27 31 42 47 49 54 55 57 54 54 52 52 49 47 44 44 27 36 38 30 28 21 18 17 17 17 16 16 15 15 14 12 10 9 11 15 16 16 17 20 23 25 26 28 29 29 30 29 29
30 30 42 48 54 59 53 50 49 48 48 49 48 39 40 39 33 32 31 19 17 16 15 15 15 15 12 11 11 10 9 9 10 14 17 18 24 26 27 29 29 31 31 30 31 31 30 29 29
36 37 40 47 56 50 54 50 44 44 46 40 39 32 33 27 27 28 28 20 17 15 16 15 14 10 8 8 8 9 12 16 18 21 27 30 30 30 30 30 31 33 35 34 33 33 32 32 31
39 41 41 44 46 49 46 42 36 35 35 32 29 29 25 22 21 22 22 19 17 18 18 16 13 15 13 12 15 20 23 25 28 31 34 34 35 35 36 36 36 35 36 37 37 38 38 36 34
36 34 39 44 51 45 41 36 26 23 26 30 30 30 27 19 19 20 19 20 20 23 21 20 17 17 20 26 28 30 33 34 34 36 35 37 38 39 39 39 39 39 40 40 40 40 40 41 40
31 28 28 34 42 34 29 18 19 14 18 17 19 24 25 22 24 19 19 19 20 29 29 30 24 22 27 30 34 38 39 39 40 39 36 39 40 41 43 43 41 40 41 42 42 42 42 41 40
26 24 22 31 28 25 22 12 12 11 13 14 17 18 23 26 24 22 21 24 35 35 37 39 32 27 29 34 39 46 48 47 49 47 43 39 41 42 44 45 47 48 49 48 47 45 43 43 39
25 25 24 23 21 20 13 8 8 10 11 15 18 22 23 27 30 28 27 31 34 35 39 44 38 37 37 41 54 56 53 52 57 54 51 43 42 46 52 55 55 55 55 53 51 51 49 46 43
25 18 16 20 20 10 7 8 9 13 15 20 19 21 22 29 33 33 31 31 33 36 39 48 43 52 54 51 62 61 59 63 58 56 53 52 51 53 59 61 59 58 58 56 54 53 53 51 49
18 13 5 9 15 9 9 14 17 20 20 22 20 22 27 31 32 33 33 34 37 39 40 43 49 52 55 56 57 61 65 67 63 64 62 58 56 61 67 64 61 58 54 55 53 51 51 52 51
11 16 18 22 21 17 19 22 27 27 22 23 25 26 29 32 35 38 43 46 45 45 52 58 58 64 63 60 58 64 61 64 67 70 66 65 66 71 70 64 59 58 57 55 56 49 46 48 49
26 21 27 26 29 25 23 24 28 22 23 26 26 29 34 39 42 47 52 48 48 47 55 57 86 72 73 72 69 61 65 70 77 71 70 73 77 75 72 67 63 58 59 53 50 46 43 44 41
33 31 29 36 33 29 32 28 26 29 30 27 29 31 32 34 42 50 55 57 54 52 67 78 72 78 79 75 66 66 69 72 74 77 77 77 71 66 63 62 63 61 55 52 50 46 43 42 40
37 34 31 36 37 34 37 33 35 36 36 36 36 35 37 40 44 50 51 54 59 70 77 76 82 81 74 68 71 74 75 77 78 76 77 72 67 64 66 61 56 52 51 51 48 45 45 43 40
39 36 38 36 32 33 37 37 40 40 40 39 41 42 47 54 52 56 61 66 74 72 67 67 68 68 69 72 76 76 75 74 75 77 74 70 63 60 54 54 53 51 50 49 49 49 46 45 46
37 38 36 33 30 27 34 40 44 45 42 40 44 47 54 59 59 61 61 60 58 61 63 61 62 64 68 71 72 72 73 73 71 66 63 58 55 52 49 48 48 47 48 49 51 54 55 53 50
27 37 36 33 28 32 35 52 49 47 45 44 50 53 57 57 58 56 53 48 46 50 51 53 59 63 65 66 66 69 68 63 59 56 54 51 47 44 44 48 49 50 51 51 53 53 51 49 47
27 25 25 23 25 27 38 51 54 51 51 51 57 57 58 57 52 48 48 46 46 48 50 52 55 58 61 60 57 53 50 49 48 47 46 49 53 55 51 52 56 60 58 50 43 48 48 50 51
24 25 30 31 32 42 45 50 57 55 55 58 65 61 61 54 48 48 49 48 50 50 51 53 53 51 52 52 52 50 48 48 47 48 50 54 56 54 54 64 60 57 52 43 43 41 41 43 44
25 31 48 50 54 56 49 60 62 60 62 62 64 58 56 57 62 61 55 52 52 53 58 58 60 60 56 54 51 50 48 48 51 52 55 64 65 72 55 57 55 52 42 32 32 35 36 39 42
30 32 48 56 69 62 54 61 57 58 59 64 57 62 64 66 60 60 63 61 60 60 57 55 56 59 59 57 58 58 59 59 57 64 62 73 66 69 52 49 44 42 41 34 32 29 31 34 38
29 29 29 40 46 46 50 50 52 54 59 63 72 69 62 62 58 65 68 67 64 59 56 59 63 63 62 60 63 64 65 61 66 60 44 43 41 47 54 57 48 43 33 33 36 41 37 33 35
23 25 32 37 41 49 50 52 58 56 58 57 58 54 58 63 69 71 70 67 59 61 64 64 64 62 63 63 60 57 52 48 42 36 39 49 54 59 67 73 54 45 50 53 55 51 32 34 36
29 29 30 32 41 48 58 50 45 51 51 52 52 55 63 74 76 73 71 67 64 65 63 62 62 60 59 56 47 37 37 39 42 41 41 51 57 77 73 70 70 74 67 55 52 48 34 38 40
25 29 31 41 42 52 56 48 44 50 52 57 60 63 68 79 78 73 71 68 67 65 63 64 60 55 50 41 36 37 38 39 44 43 41 50 57 68 77 86 82 74 61 52 49 44 43 40 40

GFSSGP_prec_cthk_003.txt.gz
RH
40 31 27 24 31 32 40 40 54 57 61 67 72 72 76 76 75 79 79 70 71 62 62 58 58 53 49 46 42 43 41 39 33 30 26 22 20 17 12 10 10 11 14 13 11 9 7 7 8
41 30 29 18 30 36 45 54 62 64 59 63 74 77 76 82 81 80 76 70 58 58 57 58 58 47 44 42 41 40 37 32 28 24 21 19 15 11 8 9 12 15 16 15 14 12 11 11 11
41 36 28 24 27 41 48 59 63 67 69 69 71 70 75 76 68 71 68 59 55 60 58 56 49 43 42 42 38 34 28 26 24 21 18 14 9 8 9 13 17 17 18 17 17 17 17 16 16
33 35 32 22 26 27 45 57 53 62 62 58 75 70 68 61 59 57 50 49 53 57 55 46 40 41 43 36 29 25 23 20 19 18 11 9 11 11 13 17 18 19 20 21 22 22 24 26 26
28 32 35 39 37 38 41 51 62 62 64 63 60 65 67 61 56 52 49 48 48 48 44 38 40 36 26 24 23 20 18 16 14 9 7 11 14 16 18 21 22 23 24 26 26 26 26 27 26
30 37 38 48 50 47 51 59 58 62 62 60 61 59 60 56 53 49 45 44 42 38 31 25 22 21 21 20 17 16 12 10 9 9 14 18 21 24 26 27 29 29 29 29 27 26 27 27 27
30 34 43 51 54 55 54 59 62 61 61 60 57 56 58 53 53 38 31 33 27 20 17 17 17 17 15 13 12 10 8 8 12 17 20 25 27 29 30 31 31 30 30 30 30 29 28 28 29
30 35 45 56 52 54 50 56 54 47 48 47 44 40 43 37 34 29 21 18 18 17 16 15 13 10 8 9 8 10 14 18 21 24 29 30 31 33 32 32 32 33 35 36 37 35 34 34 33
34 37 46 47 49 55 53 51 48 45 38 36 34 31 24 28 26 24 19 18 17 15 14 13 11 10 9 12 16 20 22 25 27 29 32 33 32 33 36 37 37 39 38 40 39 37 39 39 38
34 40 50 48 42 50 49 43 41 35 35 30 29 32 30 25 22 21 19 16 16 16 17 16 14 15 17 21 24 27 30 31 31 33 32 33 34 36 37 39 42 44 44 46 45 43 44 44 44
33 34 41 46 49 50 43 37 26 24 27 24 22 27 26 21 19 21 20 16 17 24 25 23 20 23 26 29 29 32 36 42 45 43 41 41 41 39 39 41 44 47 49 50 50 50 49 48 47
32 28 30 39 43 36 26 23 21 14 17 17 17 18 22 23 25 25 24 22 25 34 32 32 26 28 29 32 35 41 48 54 53 53 50 47 45 45 44 44 46 51 54 53 52 52 54 52 51
26 25 25 24 28 23 20 16 11 10 15 18 20 22 24 29 32 30 28 27 30 32 35 36 34 30 38 41 44 50 54 56 57 55 54 52 54 50 49 50 53 56 56 52 49 49 51 49 49
25 23 21 20 21 20 13 9 9 12 20 23 22 23 26 30 33 33 34 31 33 34 36 40 41 36 46 48 49 51 53 55 52 53 55 57 56 55 57 60 63 63 62 54 52 50 50 47 45
24 22 12 15 17 14 8 10 13 18 24 25 26 27 29 34 37 36 37 37 39 40 42 47 55 53 52 63 65 64 64 65 61 55 57 60 61 64 68 70 69 61 57 52 50 48 47 45 44
23 15 19 18 15 12 13 17 19 25 26 26 29 33 35 36 38 39 44 42 44 45 51 58 62 85 79 91 84 81 80 65 62 66 71 71 73 74 73 71 66 57 54 52 50 46 43 43 41
17 21 28 29 26 22 19 22 29 26 27 30 35 35 35 38 39 42 55 64 59 56 58 71 89 90 80 98 85 81 73 71 76 78 81 76 75 75 71 66 62 55 51 48 44 40 39 38 38
23 30 28 30 26 27 27 29 28 25 26 34 35 36 35 38 43 45 51 57 63 61 69 80 84 87 90 82 76 72 71 77 79 79 77 77 74 69 67 64 57 47 46 43 39 38 36 37 36
29 29 31 35 34 36 35 38 38 33 37 39 37 38 40 41 47 48 54 58 64 68 71 72 74 79 82 75 74 71 77 79 81 80 78 74 70 64 57 50 48 48 45 40 37 39 39 38 38
37 31 32 31 38 37 38 41 42 39 41 42 43 48 48 54 56 62 64 71 73 73 66 67 70 70 70 68 70 77 84 83 77 74 73 67 59 54 50 49 47 43 41 42 44 43 40 39 40
40 37 37 38 39 38 35 43 44 43 46 47 50 55 57 60 64 67 66 63 63 67 66 64 64 65 67 71 73 68 66 67 69 68 63 56 51 49 47 45 47 48 47 46 45 46 46 47 48
41 39 38 40 41 45 36 54 48 50 53 53 54 59 63 60 63 57 58 52 55 54 52 53 55 56 59 61 63 64 65 66 61 56 51 51 51 49 50 50 48 49 47 48 48 44 40 39 39
31 33 37 40 40 41 40 47 47 51 54 55 58 62 60 65 59 56 53 54 55 55 54 56 59 60 60 58 58 59 58 55 54 54 54 52 49 48 49 54 56 58 51 46 48 43 30 32 33
27 32 36 39 40 49 41 47 52 53 56 62 64 64 62 65 57 57 61 64 59 53 52 57 62 62 62 59 56 55 54 51 50 51 52 50 51 52 62 60 50 53 51 43 45 40 28 30 34
28 33 46 45 50 54 46 51 51 51 57 62 64 63 62 59 66 68 59 57 57 57 58 55 55 52 50 53 53 53 53 55 56 54 51 53 49 50 44 38 40 42 44 44 44 40 41 45 46
30 33 46 48 58 48 47 54 54 53 55 55 54 55 61 67 72 56 53 60 64 63 61 54 52 53 56 57 57 57 57 61 58 56 53 45 39 34 37 44 53 55 64 60 51 48 50 55 54
26 29 31 45 52 53 53 48 47 47 50 52 53 57 64 60 52 54 63 66 64 63 59 56 57 59 59 59 62 58 57 54 48 44 39 35 33 35 43 60 64 69 76 66 70 68 64 59 49
26 26 30 37 39 46 46 45 48 45 49 49 53 54 52 53 57 62 68 74 71 68 65 64 66 65 62 58 53 48 45 44 40 36 31 32 38 45 49 43 53 62 67 76 68 69 70 57 52
28 25 29 33 40 44 53 46 38 42 43 46 50 48 52 58 63 66 71 76 76 78 75 68 65 62 57 52 44 36 32 31 29 24 21 26 37 45 44 45 48 73 72 70 69 63 62 49 42
24 25 26 35 37 48 49 38 33 36 41 45 51 52 58 63 67 70 75 77 82 77 72 68 63 60 54 43 39 35 31 26 20 16 18 29 42 45 51 62 60 69 71 63 64 66 52 46 45

GFSSGP_prec_cthk_006.txt.gz
RH
32 33 31 30 34 39 41 40 44 62 71 71 69 71 76 84 79 81 78 80 81 70 62 59 61 61 54 51 43 42 43 41 35 31 25 21 17 12 9 9 12 13 13 13 13 13 13 12 12
37 38 37 32 28 34 37 42 58 72 74 75 74 81 80 90 81 81 84 78 78 68 62 58 61 56 53 43 43 42 39 33 28 24 21 16 12 8 9 12 15 16 16 16 17 18 19 19 18
38 42 36 30 23 34 38 52 63 71 71 70 74 80 83 85 81 73 81 74 64 57 63 62 58 50 45 42 42 37 30 26 23 20 15 11 9 9 12 15 17 18 19 19 21 21 22 23 24
39 40 37 30 18 32 40 67 62 76 74 73 68 73 78 80 68 69 69 65 61 62 61 60 51 43 42 41 33 26 24 21 18 13 9 10 11 14 17 19 21 21 21 23 25 26 25 25 24
37 36 37 33 25 31 39 54 68 73 72 71 59 63 71 67 64 61 58 59 59 61 59 53 43 41 36 25 22 20 19 16 12 8 11 15 18 21 21 23 25 27 28 27 26 25 25 25 25
37 31 37 40 38 38 42 53 66 67 71 68 65 67 68 66 60 60 58 54 57 57 49 43 37 25 20 21 19 16 13 10 9 14 19 22 24 25 27 28 28 28 29 28 29 28 27 27 28
35 32 38 45 52 48 55 67 70 67 63 68 63 62 58 59 56 53 55 49 47 42 30 23 21 19 19 16 14 10 9 11 17 20 25 28 30 29 29 30 32 31 33 35 34 34 33 32 32
35 34 40 55 56 63 61 68 65 60 60 54 50 50 43 38 43 31 36 35 26 22 22 19 16 13 10 10 9 10 15 19 23 28 31 31 31 31 32 32 32 35 37 40 41 42 39 38 37
31 35 44 52 60 56 63 63 60 51 53 46 39 34 26 27 29 26 24 22 21 19 15 12 10 10 10 11 14 19 22 26 30 33 34 33 33 33 32 35 36 37 41 44 44 46 46 44 44
34 41 47 50 56 60 62 52 54 47 42 44 35 34 31 26 22 19 17 16 15 14 14 14 13 12 15 20 23 26 30 33 38 42 44 44 44 44 43 41 42 41 46 48 48 48 46 47 47
36 38 44 46 48 51 51 51 46 35 34 30 26 31 31 25 21 18 18 15 15 19 20 18 19 21 23 26 30 33 39 42 49 49 51 52 52 50 48 46 46 47 49 51 51 51 46 44 45
33 37 37 41 49 46 42 39 34 24 21 21 19 20 22 22 22 23 25 21 26 29 29 26 24 28 33 35 37 42 48 50 52 53 49 48 50 53 55 52 50 53 53 54 54 52 47 45 44
32 32 34 35 39 40 31 26 25 16 20 21 22 24 28 29 30 31 30 27 33 36 37 39 34 32 41 47 49 54 56 57 57 59 55 52 53 57 56 56 58 62 60 58 54 49 46 45 44
29 26 26 30 31 26 21 18 11 14 23 23 22 25 30 34 36 36 37 37 39 41 46 47 49 41 44 53 58 66 73 75 75 74 64 61 61 63 62 63 66 66 63 60 56 50 45 45 44
29 25 21 17 19 21 15 10 15 23 27 26 29 33 36 38 41 40 42 44 45 46 46 47 51 54 56 64 75 92 93 88 84 82 76 76 72 70 68 69 71 68 63 59 53 45 41 39 36
26 21 16 16 16 14 11 16 20 33 31 30 32 34 35 39 41 43 47 48 47 48 51 52 66 76 83 86 91 91 91 86 85 78 75 78 76 76 73 73 70 65 54 48 46 43 40 38 34
26 23 20 18 16 16 19 26 30 32 36 32 37 38 38 39 45 48 50 52 59 64 62 58 68 80 85 91 93 91 85 79 79 79 82 81 83 79 70 67 62 58 52 45 42 40 39 34 31
21 21 26 26 23 27 28 36 36 31 36 37 40 42 44 46 51 53 57 57 61 63 62 63 78 83 91 92 90 80 77 74 80 87 88 80 73 68 70 69 61 50 44 43 42 39 37 36 35
21 28 35 33 29 36 42 42 41 37 36 40 43 46 47 48 51 54 56 61 63 66 70 74 79 87 84 75 73 70 72 84 90 79 73 68 66 65 57 50 46 47 47 44 41 42 41 39 37
29 32 37 36 36 37 44 43 40 38 36 36 37 43 50 51 53 53 59 65 70 71 71 73 67 65 68 71 70 73 70 64 62 62 62 61 54 48 44 45 47 46 44 44 44 42 41 40 37
41 32 35 39 40 40 42 44 40 40 40 43 45 49 53 54 60 64 68 69 66 63 56 54 56 57 58 58 59 59 59 59 59 58 53 49 48 49 50 50 48 47 48 48 50 45 41 38 40
42 40 37 45 46 51 44 56 44 45 46 48 53 55 56 58 55 59 56 54 50 47 52 58 57 54 56 58 61 62 62 58 54 52 51 52 53 54 55 54 49 46 49 46 41 36 33 34 34
37 36 40 43 44 46 47 53 46 48 50 53 55 56 57 54 57 59 60 60 59 61 55 54 52 55 56 57 56 54 51 52 53 54 54 55 55 51 49 43 41 38 39 36 34 35 38 39 36
28 36 42 45 47 51 41 44 47 48 46 52 56 59 60 58 55 57 59 64 67 59 57 58 61 58 52 52 52 54 56 58 57 55 52 52 51 46 40 35 33 34 36 38 43 42 43 38 39
31 35 47 49 53 51 41 43 39 41 47 55 59 60 61 55 56 63 70 58 58 60 60 62 61 58 55 55 59 60 60 59 56 54 53 50 44 36 30 29 32 36 35 44 51 49 63 60 55
30 35 47 47 55 46 42 49 44 43 47 51 55 55 54 55 58 64 60 52 57 62 66 68 66 64 62 59 58 57 55 54 51 48 42 37 32 28 26 29 33 40 39 47 44 59 65 66 56
31 35 36 49 52 53 51 42 43 45 46 45 46 48 51 56 56 50 53 54 56 59 63 66 67 68 64 58 54 53 50 45 39 35 31 25 21 18 24 34 39 59 52 60 63 59 55 57 61
30 30 32 39 38 44 44 42 43 38 39 41 43 45 49 50 50 52 53 54 56 60 66 65 72 69 65 61 60 51 47 42 34 28 23 19 15 20 31 42 49 56 61 61 55 53 55 56 57
30 27 29 32 39 42 50 41 33 35 38 41 43 45 49 52 53 55 57 60 64 66 70 74 74 68 67 60 51 47 42 35 28 23 20 17 18 28 37 44 44 45 45 39 42 43 48 53 50
27 25 25 32 29 46 46 34 30 32 36 38 42 47 51 54 57 59 63 68 70 75 76 68 72 73 60 55 50 45 38 32 27 23 20 18 20 27 37 37 39 40 37 43 48 56 56 49 42

GFSSGP_prec_cthk_012.txt.gz
RH
16 20 22 22 25 26 30 33 42 56 63 67 65 69 70 70 70 69 76 74 75 79 82 78 72 73 69 65 58 48 42 36 30 24 20 14 10 10 14 15 14 15 17 17 18 18 18 19 19
17 18 20 26 26 28 31 29 41 65 62 65 68 70 71 67 71 71 74 78 81 82 88 75 73 77 71 65 55 47 41 34 25 20 15 10 9 14 16 16 17 18 19 20 20 20 20 20 19
17 19 26 32 31 35 29 38 61 59 61 69 73 72 76 76 77 78 74 80 82 86 87 76 73 76 74 63 54 47 36 26 21 15 12 8 14 17 18 19 20 21 21 22 23 21 21 21 21
18 21 28 34 37 33 37 57 60 59 61 67 72 82 80 75 80 76 77 74 86 94 84 76 77 77 72 54 56 37 26 23 16 12 10 15 19 20 22 22 23 23 24 24 24 24 24 25 24
21 26 32 40 39 37 32 54 59 67 67 66 71 71 68 75 78 77 85 90 98 93 82 81 85 80 64 57 38 26 24 18 11 12 17 20 23 23 24 25 25 27 28 28 29 31 31 28 28
24 26 35 39 41 36 30 57 70 74 70 68 73 74 66 69 79 87 82 88 87 90 87 85 82 66 61 41 28 24 20 13 12 20 23 25 25 27 27 28 28 30 31 34 36 36 36 33 33
25 26 35 38 48 47 44 56 64 72 78 65 70 73 70 71 72 84 85 80 80 79 79 77 67 60 40 30 26 21 15 13 21 27 28 28 30 31 32 32 33 37 40 42 42 42 41 38 38
24 24 35 47 56 63 63 48 57 70 72 77 72 62 64 66 71 75 79 77 73 74 69 61 50 39 36 26 21 15 19 23 29 32 32 34 35 38 39 40 42 44 46 45 45 45 43 41 40
23 25 38 55 62 61 61 64 63 68 77 77 61 54 42 47 63 69 76 70 68 59 44 41 37 34 27 28 19 23 26 29 34 39 38 42 49 48 48 46 47 51 51 47 49 47 47 44 45
24 32 42 51 55 61 67 60 70 71 76 71 60 53 42 42 50 48 49 45 35 35 33 26 22 21 27 27 31 30 33 42 45 49 44 51 50 49 49 50 50 52 51 49 49 48 49 51 53
23 35 41 50 55 50 55 55 56 78 64 49 49 48 38 37 40 39 36 36 32 29 27 25 21 22 28 35 36 37 40 45 47 47 50 57 56 61 60 59 59 60 57 59 57 55 55 48 46
30 38 48 51 55 53 54 50 46 59 44 27 36 38 32 30 34 33 30 33 36 30 27 23 24 28 34 37 42 46 48 51 53 53 54 61 65 69 74 74 69 68 68 64 62 59 52 49 46
36 45 42 47 50 51 53 52 42 29 30 29 31 33 29 31 36 35 37 42 40 34 37 33 36 38 37 41 47 51 55 61 65 67 73 73 71 78 85 81 82 79 75 70 68 64 56 52 49
40 39 41 48 47 51 55 38 33 28 34 33 34 36 40 41 41 38 39 40 42 45 48 46 44 50 56 62 66 70 82 82 82 82 82 76 84 90 91 88 85 85 81 75 68 62 57 53 51
32 30 32 39 43 46 38 22 23 27 31 42 42 43 47 46 43 40 42 44 46 53 57 56 65 65 68 72 83 87 84 85 71 73 72 73 87 85 88 90 90 85 79 71 61 58 56 52 46
30 27 27 33 36 39 25 20 24 30 34 44 44 46 48 48 48 48 48 48 50 57 64 68 72 74 80 84 87 92 91 81 78 78 76 80 84 85 88 88 80 65 57 55 55 49 45 44 42
33 27 24 22 26 24 21 19 25 34 37 41 47 49 48 48 48 51 54 58 61 65 70 70 75 77 77 81 86 82 83 80 73 70 69 71 73 68 64 59 56 53 53 51 49 46 43 43 41
31 22 22 21 23 20 22 29 28 40 44 46 45 47 48 49 50 53 55 60 62 68 73 73 74 78 79 76 75 73 72 65 59 59 59 56 55 54 52 51 50 50 49 49 49 47 44 41 39
26 26 28 28 24 22 30 33 37 41 44 45 44 43 46 48 50 51 53 55 57 60 65 69 77 76 73 70 65 59 56 56 57 55 48 48 50 51 51 52 52 52 51 49 47 44 44 40 38
24 26 38 36 35 34 35 38 39 36 37 42 44 45 47 46 47 51 54 57 60 66 73 76 73 67 66 60 57 55 55 54 48 48 50 54 57 58 59 57 56 53 51 50 44 34 31 32 42
31 35 38 40 38 34 34 35 35 34 32 35 37 40 42 44 47 53 60 65 65 65 65 64 63 59 54 52 50 54 50 48 53 57 61 60 59 59 59 55 51 47 43 38 34 33 32 32 34
37 33 37 40 40 38 36 36 34 36 39 34 35 38 42 49 57 59 56 53 52 52 55 54 54 55 49 48 48 51 57 62 66 69 68 67 62 57 53 50 43 38 33 30 33 31 31 34 32
39 33 33 33 35 38 37 34 45 37 39 42 40 41 46 53 58 53 52 53 53 51 52 51 51 48 47 49 54 59 62 66 68 67 65 63 58 52 49 42 36 32 29 30 29 32 34 39 39
37 34 41 41 40 39 35 33 37 37 35 39 41 42 48 54 53 50 53 55 55 54 50 48 48 49 52 58 60 60 60 63 65 61 53 49 47 45 38 34 32 31 29 29 31 33 39 48 52
38 36 38 36 40 38 34 32 26 31 30 35 40 45 49 52 50 54 57 58 54 53 53 51 55 55 57 59 60 60 59 60 60 49 46 45 39 35 32 29 29 30 31 31 46 52 52 44 49
37 35 35 38 40 32 36 28 28 29 31 39 44 47 48 50 50 51 55 57 55 56 54 56 58 58 57 57 61 67 63 57 56 48 45 41 34 32 30 30 29 30 35 41 46 59 47 45 48
31 31 32 37 40 36 29 30 29 30 33 37 42 44 46 45 48 51 53 57 57 55 56 57 59 61 58 64 72 79 64 58 48 44 42 35 33 32 32 33 33 41 42 49 58 52 45 45 45
29 28 32 33 41 37 27 26 24 27 30 33 37 39 41 43 48 52 54 58 56 57 59 60 61 64 67 72 77 61 56 52 46 39 37 35 34 34 33 37 43 49 43 58 53 45 48 47 53
34 31 30 31 32 25 21 18 19 23 25 28 30 35 39 42 46 49 52 55 58 61 61 63 66 68 69 74 67 55 53 49 38 40 41 40 36 34 32 33 39 38 47 46 48 63 52 53 59
32 31 27 24 26 30 32 18 17 20 22 26 29 33 38 42 45 48 50 55 59 61 62 66 66 68 72 74 64 51 47 43 42 45 44 41 36 34 33 31 37 38 44 46 50 55 55 60 66

GFSSGP_prec_cthk_015.txt.gz
RH
16 18 20 20 23 22 24 29 31 54 59 61 57 59 68 65 75 82 81 80 76 78 75 73 71 73 68 69 61 53 45 37 31 23 17 13 9 12 15 15 15 16 16 17 18 18 18 18 17
21 20 19 25 24 28 26 29 33 50 60 75 56 62 61 66 73 78 80 86 80 80 80 80 77 75 73 69 65 55 44 33 25 19 13 10 12 16 16 18 19 19 20 20 20 20 19 19 19
19 17 23 25 26 30 28 35 53 56 58 53 59 61 63 72 76 76 76 79 79 87 86 82 79 81 81 77 67 54 44 29 22 15 11 11 18 18 20 21 21 22 23 24 24 24 23 25 24
22 20 24 27 35 32 30 48 56 60 59 56 61 64 71 69 75 76 75 81 88 93 92 86 86 84 82 79 64 53 40 24 18 12 10 18 20 21 22 23 24 24 26 26 28 29 32 31 29
26 24 23 27 35 36 33 51 68 60 76 60 62 60 56 67 76 80 79 82 96 96 91 82 90 91 90 77 67 48 29 23 13 12 16 21 22 24 25 25 25 28 30 30 33 37 38 37 35
27 26 28 32 34 34 36 46 73 65 66 62 70 62 64 62 78 85 81 87 95 88 88 88 89 89 85 77 59 31 27 17 11 18 21 23 24 26 27 27 30 31 34 37 38 40 42 41 39
27 29 29 35 41 49 43 59 81 67 61 68 77 70 66 62 67 88 84 89 87 95 86 91 89 85 79 62 35 27 20 12 16 21 24 26 28 27 29 30 34 38 40 41 43 46 45 42 40
28 31 30 32 38 58 61 46 47 46 69 61 57 65 59 70 66 81 90 96 88 98 85 94 88 71 50 37 26 21 16 13 22 27 28 30 30 31 35 38 40 43 44 45 48 49 46 44 48
30 26 28 34 49 59 52 49 51 45 57 65 76 71 48 53 70 83 90 93 90 87 88 80 70 60 51 35 23 15 15 21 27 32 32 35 47 47 49 45 43 45 47 46 46 48 49 52 55
26 24 30 45 58 66 54 58 57 52 57 63 66 55 43 54 66 78 79 78 79 69 58 57 46 41 40 31 22 31 29 39 45 51 44 50 47 53 50 53 51 53 52 53 57 59 59 59 57
23 34 44 57 55 53 57 53 60 61 69 61 68 55 46 65 67 63 72 58 44 39 31 24 21 22 35 33 37 39 43 48 48 48 52 57 59 69 68 72 78 76 75 77 72 68 65 60 58
32 34 39 49 45 42 47 51 62 76 68 80 48 47 44 46 44 42 37 35 36 32 26 27 21 26 39 41 50 48 55 55 62 64 62 65 66 75 79 81 81 84 85 79 77 77 69 63 56
35 39 40 49 50 54 53 60 61 53 50 43 46 37 38 40 40 37 41 39 37 35 34 30 29 39 39 48 53 63 63 63 67 73 73 73 77 75 75 82 83 85 84 85 83 77 69 62 57
42 42 42 45 49 50 54 48 42 33 46 43 35 36 37 40 43 42 46 48 43 42 41 40 49 50 53 64 68 70 76 78 75 73 73 75 81 77 79 83 86 88 88 88 79 68 61 57 54
41 42 44 47 46 47 61 29 34 29 46 42 46 46 48 48 46 43 47 45 49 50 51 52 54 58 63 71 73 81 84 79 78 69 70 73 73 75 84 84 83 89 85 75 62 56 52 51 50
37 35 41 40 47 43 40 33 22 30 52 54 61 56 58 51 49 45 47 45 48 57 61 64 68 73 74 73 76 82 77 68 67 63 62 68 70 76 79 74 66 61 56 56 53 51 48 47 46
33 35 36 35 34 37 32 33 22 34 49 58 55 53 52 51 50 48 52 52 56 64 70 71 73 75 76 76 77 73 68 66 66 64 64 62 60 56 52 53 51 49 51 51 50 49 49 48 43
36 30 30 31 30 27 26 34 24 36 42 52 60 57 52 48 49 53 54 61 67 72 75 74 75 76 81 82 77 73 67 63 59 59 55 48 45 46 49 51 51 53 55 55 54 50 47 41 40
33 28 25 27 22 24 29 34 26 37 44 46 52 56 53 52 53 55 60 62 66 68 70 65 73 81 86 80 75 65 57 52 51 49 46 47 50 52 53 57 59 59 59 56 51 48 44 37 34
30 29 32 31 22 28 28 37 34 37 43 44 47 49 52 52 51 54 58 61 64 69 71 72 76 82 79 76 63 61 56 53 51 49 51 55 57 59 62 63 63 60 56 51 47 43 41 38 38
33 27 42 35 34 27 38 44 35 34 37 40 45 50 54 54 52 56 59 63 66 70 71 68 69 69 66 61 57 52 50 50 52 54 54 58 63 63 61 56 55 52 49 44 40 40 42 36 35
41 33 40 35 40 37 30 33 46 31 29 32 33 41 46 51 52 58 61 62 64 63 60 58 56 57 55 51 50 53 58 61 58 60 61 64 63 62 56 53 53 48 41 41 40 40 40 37 40
52 40 32 33 35 48 38 32 50 48 33 33 38 41 42 43 50 55 58 54 56 57 57 54 52 49 45 48 51 52 56 60 62 63 63 62 58 56 47 45 39 39 40 42 42 42 41 43 44
32 34 31 31 40 43 33 43 36 54 42 37 37 42 44 45 46 52 52 51 53 54 52 49 49 49 48 50 52 56 60 60 65 70 66 62 48 44 43 38 35 35 41 44 42 42 42 43 45
31 40 44 39 41 40 43 38 31 39 48 44 36 37 43 43 44 47 46 48 53 54 51 50 51 51 51 54 57 56 59 63 68 80 61 46 45 43 35 35 37 36 40 41 40 39 43 53 56
36 42 43 43 40 32 43 36 30 32 30 26 38 41 43 43 43 45 44 47 51 54 53 52 54 53 54 56 56 58 65 71 78 66 44 43 39 34 33 37 39 44 43 42 42 45 56 55 59
44 36 37 44 40 35 25 28 35 29 24 28 39 39 42 41 42 44 46 49 51 55 55 55 55 53 55 59 63 65 65 65 62 54 50 40 36 34 37 40 45 45 40 42 53 57 54 50 53
29 40 34 30 40 40 31 34 28 33 23 27 36 36 39 41 42 41 45 47 50 53 57 57 54 54 59 66 65 63 64 67 63 48 40 40 38 39 43 39 36 40 39 53 51 49 50 54 62
36 27 27 35 44 40 28 28 29 16 22 23 28 35 34 36 39 42 44 44 47 51 54 55 55 60 63 67 67 64 60 60 48 41 43 43 42 48 43 39 36 37 45 44 43 45 49 62 68
33 39 39 33 34 29 32 21 19 16 17 22 24 30 32 35 38 43 43 45 47 50 52 55 59 63 66 72 66 57 59 51 45 48 50 48 53 48 44 42 42 46 44 37 47 52 49 59 63

GFSSGP_prec_cthk_021.txt.gz
RH
22 19 20 25 25 22 22 21 31 42 42 48 53 57 62 59 57 59 61 66 73 81 85 76 74 71 70 66 66 59 54 48 40 24 15 12 11 13 15 16 17 18 18 18 18 19 19 19 21
21 20 26 25 21 22 22 31 52 47 43 48 55 54 54 60 61 63 64 71 73 76 79 80 81 75 72 72 68 63 58 46 37 20 14 13 12 15 16 18 19 20 20 21 21 23 24 25 28
20 26 27 23 21 21 21 45 49 49 49 46 51 52 50 57 56 67 68 68 71 74 82 87 86 79 83 77 72 66 53 45 32 19 14 14 15 17 18 19 21 22 23 23 25 26 27 31 32
22 23 22 21 22 17 31 38 49 54 52 53 55 55 54 61 62 63 69 78 78 82 85 86 90 89 89 82 76 68 56 44 31 21 20 17 18 20 21 22 23 24 25 26 28 30 32 35 36
23 23 21 20 21 29 39 45 53 64 60 58 52 50 55 62 64 64 81 88 86 85 88 92 93 95 95 88 79 66 52 43 27 18 17 18 20 21 22 24 25 26 28 30 32 35 37 41 42
25 22 26 21 29 33 55 55 67 58 55 52 47 52 69 69 65 71 92 95 98 96 96 96 95 99 93 86 78 63 47 31 22 13 16 20 22 23 24 26 28 30 33 37 38 39 38 44 43
30 29 30 27 32 42 64 61 57 63 58 52 51 59 71 71 73 80 92 98 99 95 99 99 94 91 85 76 68 51 34 22 12 12 19 22 24 25 26 28 32 35 38 38 40 41 43 48 50
30 33 31 30 35 57 56 62 66 60 65 58 61 63 67 73 78 84 88 86 94 97 97 97 86 96 83 69 55 38 26 17 14 19 23 24 29 31 29 32 34 38 42 45 52 55 58 58 58
29 33 30 33 57 64 60 66 67 64 62 53 55 59 63 71 77 89 89 90 97 94 89 85 84 85 70 56 43 26 15 13 16 24 28 30 33 34 41 44 46 50 56 61 65 65 66 65 65
30 30 34 46 56 59 59 58 67 70 75 65 67 72 76 75 78 89 88 83 83 86 81 72 75 65 57 47 28 19 19 20 23 30 32 35 39 47 49 54 59 64 66 66 68 71 70 71 65
30 32 40 44 52 57 58 58 55 63 72 71 70 71 86 90 95 91 90 74 67 76 70 70 59 48 39 25 18 18 22 29 39 42 47 54 52 59 54 58 67 64 67 67 71 75 77 74 70
34 35 40 47 55 61 64 57 60 67 69 68 65 69 87 91 92 83 81 51 42 45 47 44 36 31 27 26 27 33 42 47 48 51 54 55 58 59 62 63 65 65 64 67 69 70 72 74 68
38 38 52 51 48 59 60 56 55 50 61 76 73 70 76 72 69 49 49 36 34 32 34 35 35 34 36 43 49 52 53 51 55 56 50 55 60 58 58 59 58 56 61 62 65 62 61 48 42
35 43 53 56 54 54 49 54 58 51 56 67 60 60 47 43 52 47 44 41 32 25 28 32 34 42 45 51 53 54 54 61 55 51 48 47 51 53 52 50 52 56 57 59 53 44 38 38 38
39 45 43 57 53 51 53 50 49 43 37 37 49 43 36 37 45 42 36 37 30 20 25 31 40 44 47 53 59 59 59 61 55 52 47 43 45 47 48 50 53 48 43 39 36 37 39 39 40
35 42 47 46 48 52 51 46 47 45 44 37 39 34 39 48 46 42 41 36 32 29 33 41 46 49 57 61 65 64 66 64 57 50 44 42 43 45 44 40 35 34 36 39 41 41 40 40 40
40 42 43 44 47 49 48 50 49 63 53 56 49 44 41 42 41 39 39 37 38 41 46 55 55 62 60 64 71 75 72 70 62 51 45 45 40 36 34 35 40 44 46 45 44 43 43 41 30
43 42 41 40 36 47 43 41 49 49 46 48 64 58 56 38 36 37 40 46 49 49 59 63 60 59 60 74 73 72 72 69 58 50 42 39 35 35 38 43 46 48 51 50 46 43 36 28 27
44 41 42 38 39 31 37 36 43 42 35 44 48 55 43 42 37 39 42 49 49 56 54 55 63 64 57 58 57 63 65 61 51 42 36 35 38 44 45 47 50 53 51 46 38 31 28 28 26
44 45 40 36 37 27 38 38 31 36 35 48 48 52 41 47 41 38 40 46 47 45 51 58 64 64 60 59 60 61 57 48 41 37 38 41 44 47 50 53 56 53 47 42 34 29 28 29 30
44 46 38 35 31 16 27 34 35 34 37 52 51 43 42 43 38 39 39 44 46 48 54 64 60 59 60 61 59 54 50 45 41 40 42 46 48 51 54 55 57 51 49 41 33 30 30 32 34
41 44 43 41 37 27 32 40 44 44 45 43 44 45 49 49 46 43 42 45 46 51 57 60 61 59 60 59 53 51 48 46 44 43 46 48 50 49 50 54 55 49 41 35 32 30 32 36 37
44 41 41 40 45 52 47 45 44 50 43 45 51 47 47 46 43 44 46 49 51 51 51 55 56 59 54 52 54 52 51 46 46 48 49 52 51 52 53 54 41 36 34 31 32 33 38 40 38
33 35 35 42 45 56 40 46 53 44 45 43 46 46 43 48 51 51 49 53 53 52 53 52 55 51 50 53 52 49 46 48 49 52 57 59 62 58 49 40 40 42 34 34 34 38 43 41 41
36 30 45 45 59 55 50 54 51 46 46 39 35 34 39 43 47 47 50 56 51 50 55 56 51 50 52 52 51 51 51 54 57 58 61 63 65 53 40 41 44 40 35 37 40 44 41 39 44
49 34 52 59 78 59 59 64 50 40 41 44 39 43 41 39 44 46 46 47 50 49 51 50 48 47 48 49 52 56 58 59 60 63 66 63 56 47 41 46 45 38 38 43 45 45 42 48 46
39 47 47 65 69 72 58 42 45 46 45 49 44 41 35 39 43 41 44 43 43 45 44 45 44 43 46 50 55 59 61 62 66 68 65 60 53 50 46 46 40 40 42 44 46 46 46 49 48
30 40 50 54 54 43 30 41 53 53 50 38 32 34 39 39 38 38 37 35 36 38 41 43 44 45 48 52 58 61 65 66 69 67 71 69 57 63 52 51 46 46 51 51 49 50 51 53 56
33 32 27 30 44 54 56 45 40 37 34 31 36 37 37 34 35 35 34 32 31 33 37 44 46 47 51 55 60 62 66 71 69 70 72 62 64 56 56 52 53 55 58 57 54 54 53 53 60
31 37 52 56 38 50 50 36 30 30 29 29 26 30 33 35 35 34 34 33 34 36 38 43 47 51 53 56 60 67 73 74 70 73 74 67 63 58 58 62 61 55 58 57 52 54 58 62 60

GFSSGP_prec_cthk_024.txt.gz
RH
16 19 18 22 23 24 27 28 25 35 46 49 48 54 60 66 66 58 64 68 64 65 67 72 77 73 73 69 66 62 55 48 41 35 29 21 16 12 14 16 16 17 18 19 20 20 21 24 27
15 16 22 24 23 25 27 30 34 45 49 46 46 52 62 72 71 70 71 71 69 75 75 71 72 76 73 68 70 63 55 47 40 35 31 21 16 14 15 17 19 20 20 21 22 23 23 25 29
16 18 27 25 24 25 27 40 55 55 48 47 49 54 62 71 72 70 68 71 75 78 75 76 73 71 74 74 71 63 52 44 40 35 24 23 18 16 19 20 22 21 21 22 23 25 27 29 30
18 25 27 22 23 27 26 32 47 48 49 49 51 57 61 65 63 66 71 67 69 74 75 74 75 80 82 77 73 62 50 45 39 30 26 23 20 24 24 24 22 22 23 25 27 31 33 33 34
25 25 24 24 28 33 42 44 45 55 63 66 62 62 65 66 62 65 75 84 81 80 86 86 90 89 91 86 75 60 52 47 40 36 29 28 24 23 24 23 23 25 28 31 32 33 35 34 33
27 26 27 28 29 45 54 63 64 67 70 68 62 62 69 71 69 70 75 88 97 94 92 91 97 97 94 88 73 62 58 46 32 28 27 23 22 23 24 25 27 31 32 34 34 37 43 44 44
30 31 33 31 34 34 52 59 68 62 69 68 62 66 73 73 76 77 78 96 98 99 99 99 98 91 90 85 77 64 46 34 25 18 17 19 22 24 26 28 32 35 35 38 44 49 51 51 52
32 33 35 35 37 57 61 59 59 60 64 65 68 64 71 73 72 78 85 91 92 98 98 93 92 86 81 78 63 47 33 21 12 17 22 23 28 28 32 36 36 41 46 51 56 59 56 57 59
40 37 38 36 51 56 54 58 57 60 63 68 67 62 69 70 73 78 87 96 95 91 96 84 85 90 81 64 51 39 33 26 26 29 29 32 34 37 38 38 45 48 52 55 57 59 61 63 67
38 32 36 41 52 47 49 56 58 62 62 68 72 74 80 75 81 87 81 77 84 85 88 79 74 68 61 50 36 26 21 25 28 29 29 32 40 47 47 52 52 55 57 59 58 61 62 65 65
35 31 40 45 44 46 51 56 60 64 69 69 73 77 81 86 82 78 69 75 68 82 79 72 65 57 49 39 27 25 22 28 39 42 42 47 50 49 50 54 56 57 57 56 55 58 61 58 56
36 37 39 42 41 48 56 59 61 62 68 71 68 73 82 95 84 66 44 48 53 56 61 53 49 43 32 26 23 26 36 44 49 48 46 50 52 51 52 54 54 53 52 49 52 57 56 49 45
38 39 38 46 53 54 56 58 62 58 68 69 71 83 90 82 75 59 44 32 30 38 39 36 34 32 31 34 38 44 45 49 52 53 52 51 50 51 54 54 50 51 48 49 52 51 43 38 36
42 40 46 49 57 55 52 57 59 58 70 74 73 76 73 64 53 45 40 36 34 34 34 40 39 40 43 46 49 52 57 57 55 50 52 51 49 46 46 48 49 48 48 46 41 38 36 35 36
42 47 51 55 55 52 50 52 52 49 46 52 58 51 46 46 53 43 42 39 28 31 38 42 42 46 48 55 58 60 62 62 59 54 51 45 41 42 43 45 46 47 40 33 33 35 36 37 36
37 41 51 55 57 54 48 50 48 48 42 38 43 45 46 45 45 42 39 35 25 32 38 44 46 48 50 53 61 65 69 63 63 58 48 43 37 38 39 38 34 31 31 35 40 41 40 40 39
38 42 45 50 58 55 52 51 50 51 55 52 50 49 47 50 50 45 43 41 29 35 45 49 53 52 52 57 67 66 68 64 62 53 43 38 33 33 32 31 30 33 39 44 46 46 46 43 34
41 38 40 44 45 48 45 47 48 46 42 50 52 56 48 45 41 40 42 48 48 44 44 50 59 61 60 54 54 60 54 53 52 45 39 35 33 32 31 32 36 43 48 52 51 49 43 36 30
48 47 42 42 42 44 43 47 47 47 42 40 49 50 45 43 44 40 41 45 48 54 51 55 62 64 63 63 59 55 50 50 48 42 38 35 33 34 37 42 48 54 56 52 45 42 41 36 33
53 46 45 39 35 39 41 42 47 50 41 41 37 47 49 50 46 43 39 39 42 48 47 56 63 62 61 59 57 55 55 56 51 42 39 37 37 41 48 53 55 54 56 48 47 41 35 32 33
48 47 44 40 34 38 37 40 51 48 46 51 44 38 38 35 38 42 41 39 41 46 49 68 63 63 59 59 60 60 60 58 49 44 41 40 44 48 50 52 52 52 51 43 38 38 37 34 35
45 41 41 38 39 34 25 40 40 41 45 51 52 46 36 36 38 40 41 42 43 49 66 61 64 61 62 64 60 60 55 50 48 47 46 47 51 54 57 61 59 57 39 35 36 37 36 36 37
42 43 44 43 44 38 38 40 42 42 46 46 51 49 49 37 37 40 39 43 54 61 63 63 59 58 64 61 61 55 53 53 52 52 52 54 57 60 60 59 59 44 36 37 39 37 37 41 43
43 41 47 47 50 58 52 51 45 48 44 43 46 49 47 47 46 46 48 54 63 65 71 62 58 61 63 63 58 54 55 55 55 58 61 64 66 68 64 65 52 44 44 40 39 41 42 42 46
39 34 47 48 62 63 54 50 45 44 43 42 42 42 41 47 51 52 54 56 67 65 61 51 51 57 60 57 54 57 60 63 65 66 68 71 69 71 67 66 58 48 51 45 49 47 46 52 52
45 46 45 44 61 52 51 46 34 44 42 43 39 42 45 46 49 51 51 59 58 58 53 53 51 54 53 53 56 63 66 67 68 71 74 73 73 74 66 72 55 53 48 47 48 47 52 51 51
51 49 45 59 65 63 57 47 37 40 41 36 40 32 34 37 39 44 45 50 54 52 51 50 48 51 51 56 59 64 68 71 72 75 74 73 74 77 75 56 56 59 49 49 49 51 53 52 48
45 47 54 61 65 64 39 35 42 38 42 43 38 33 31 33 35 40 42 40 39 39 41 41 45 49 54 59 62 65 67 70 73 73 79 83 78 70 59 60 58 54 53 59 62 58 57 55 55
45 38 41 50 59 53 53 43 38 39 31 31 28 27 26 27 30 32 33 32 31 35 37 38 40 44 49 54 60 66 71 72 75 82 77 72 70 75 69 59 63 64 68 61 57 63 59 59 65
40 36 38 51 41 55 52 39 35 36 36 33 30 29 25 27 29 31 31 31 33 34 34 34 38 44 48 55 61 63 66 70 71 69 68 69 75 74 68 64 67 67 64 61 65 63 69 72 70

GFSSGP_prec_cthk_027.txt.gz
RH
18 17 20 25 24 23 25 27 30 33 45 55 62 66 71 69 69 65 68 70 67 64 66 68 69 68 64 65 64 63 58 48 41 37 34 32 26 24 21 14 16 17 19 20 21 22 22 23 25
17 16 19 29 27 25 26 31 33 38 50 57 57 64 65 71 72 74 73 75 73 73 72 71 73 72 65 61 67 62 52 48 41 36 35 35 33 23 18 17 18 19 21 21 22 22 25 27 28
18 18 26 32 28 31 31 36 44 48 52 58 62 71 71 78 77 73 75 77 75 73 73 75 76 70 70 63 64 58 52 45 39 38 38 35 25 28 27 21 21 24 21 23 25 27 28 29 29
18 23 28 29 31 31 30 33 38 44 53 60 60 64 67 70 74 72 76 77 73 76 83 85 81 73 72 68 63 56 53 41 40 39 39 30 30 26 22 21 22 22 24 26 30 31 30 29 31
24 27 27 30 31 31 43 47 52 49 55 57 64 76 72 71 68 72 75 80 83 84 90 93 84 81 82 73 63 56 48 42 42 40 32 35 35 34 32 26 27 25 25 29 32 32 33 35 39
26 27 31 35 27 30 40 48 56 58 61 65 66 70 73 75 69 71 71 75 77 86 91 95 93 92 87 72 61 56 47 45 49 45 37 33 30 29 28 27 26 27 30 33 36 39 42 45 47
28 31 34 32 32 39 47 49 58 59 66 65 68 72 75 77 75 75 73 73 81 91 95 98 99 96 83 70 65 58 55 52 42 37 30 27 28 27 27 26 29 34 37 42 46 51 53 57 55
30 34 32 35 35 51 52 58 62 64 66 65 66 73 77 74 75 74 77 78 86 95 98 99 99 96 81 76 74 69 58 39 28 24 21 24 27 30 33 39 38 40 42 43 46 49 54 56 58
33 35 36 38 48 50 53 55 57 60 65 71 70 72 75 75 78 77 81 81 84 94 96 94 92 92 88 86 70 50 33 24 21 25 28 31 34 35 38 41 42 42 45 50 55 51 51 54 55
35 39 39 41 49 49 54 56 54 58 65 75 77 76 80 80 80 80 82 92 92 94 94 94 90 87 79 64 52 41 31 33 35 40 40 37 39 40 42 47 46 47 52 54 50 49 50 53 47
32 38 37 42 47 49 54 55 59 62 64 73 78 85 84 85 82 76 81 96 94 91 86 84 77 67 58 50 44 37 31 31 36 41 44 46 48 50 51 51 49 49 48 48 48 48 50 44 39
40 37 36 40 43 51 54 53 54 59 69 75 86 86 89 86 86 68 72 80 82 73 64 65 67 56 48 37 30 31 34 42 47 49 47 45 45 45 43 50 49 48 48 49 48 49 46 42 40
43 39 32 37 49 55 57 58 56 62 68 77 80 76 79 69 70 64 53 51 51 46 50 50 46 40 36 35 36 47 49 52 50 49 51 51 49 46 46 48 47 49 49 47 46 43 41 40 39
43 38 46 51 54 59 59 57 58 61 79 82 82 65 55 60 54 42 32 32 36 36 38 40 43 42 45 46 48 48 51 54 54 57 58 54 47 42 42 46 44 46 49 46 40 39 38 38 39
43 47 47 54 54 60 54 54 55 57 60 68 66 59 55 50 50 41 34 31 33 37 39 43 43 41 46 47 55 59 59 64 68 62 60 53 46 42 40 41 43 45 44 36 34 36 39 42 41
37 41 47 52 59 62 56 54 53 54 51 48 50 48 44 42 41 41 38 32 32 35 38 44 45 46 48 56 66 69 74 78 72 65 56 45 42 37 39 42 42 35 31 34 37 40 40 41 40
39 42 45 51 60 63 52 52 51 51 52 53 52 47 47 47 43 40 37 31 32 40 46 51 52 53 56 56 59 61 63 58 58 55 49 44 38 38 38 34 32 33 34 36 41 43 43 38 37
39 41 43 47 53 56 50 50 51 48 49 50 55 54 44 40 38 38 39 37 35 39 43 49 56 62 64 62 58 58 55 53 51 51 47 40 38 36 34 34 35 34 38 40 41 44 42 39 41
45 44 47 44 41 46 47 49 52 50 50 50 58 58 52 39 38 41 41 40 46 43 40 44 56 58 58 56 56 57 57 57 54 51 48 41 38 35 35 36 37 40 43 43 44 44 42 42 39
51 51 48 40 34 36 38 43 51 50 47 47 47 52 48 45 41 38 38 40 40 41 43 49 60 57 60 54 57 59 61 59 56 56 52 45 41 39 38 38 44 47 51 54 51 42 36 38 40
51 49 43 42 37 38 34 39 47 44 51 54 55 46 44 36 34 38 40 41 43 44 48 59 65 65 67 60 63 67 70 67 60 59 56 49 45 44 44 47 51 54 53 55 53 43 42 39 40
46 43 40 39 34 37 32 34 36 41 43 46 49 53 47 34 32 37 43 46 47 52 61 68 70 73 71 67 66 78 73 67 61 61 55 51 50 50 54 58 60 62 61 67 56 49 45 46 48
46 44 43 40 45 48 43 39 34 39 49 46 45 50 58 54 40 39 44 48 52 61 68 75 74 73 68 64 71 75 70 63 60 59 55 53 55 58 61 63 67 74 68 59 55 49 49 51 53
44 47 48 49 49 55 45 48 43 40 41 42 43 47 47 50 50 49 51 54 60 65 69 80 68 64 61 59 70 69 62 61 58 58 57 61 63 65 73 66 72 73 70 72 49 53 56 57 54
42 44 45 52 60 58 54 52 41 36 37 37 40 40 40 44 48 50 55 59 61 67 75 76 60 56 59 56 61 57 58 62 62 65 67 68 69 70 66 77 82 83 79 53 58 56 55 58 57
47 44 51 43 59 51 50 45 42 33 41 41 38 33 37 45 47 47 55 61 61 64 77 66 57 60 56 54 54 55 59 65 69 72 75 72 73 71 84 92 89 70 51 62 57 53 59 59 64
44 44 45 60 63 60 48 45 35 34 35 40 36 35 32 31 36 40 47 48 54 63 66 55 49 49 46 50 54 57 60 68 70 74 77 78 76 74 89 89 76 57 62 59 55 61 64 65 60
43 46 50 58 62 59 49 43 34 39 41 42 39 35 29 27 31 36 38 40 47 53 44 40 40 40 43 46 49 54 61 67 71 74 76 74 76 78 81 75 68 69 64 65 64 68 66 63 61
48 52 53 47 58 61 64 45 28 35 27 27 29 29 27 27 25 28 29 32 37 36 34 34 36 38 40 42 47 57 68 70 72 73 73 71 73 71 69 71 67 70 70 73 78 71 69 66 66
52 51 55 57 41 61 57 40 29 36 33 31 29 29 29 26 23 22 27 34 38 37 39 39 41 45 47 51 64 74 78 78 76 73 67 68 70 72 74 73 74 77 82 83 70 66 65 69 68

GFSSGP_prec_cthk_030.txt.gz
RH
19 17 16 21 27 26 24 26 31 32 45 57 61 73 78 80 74 71 70 72 78 77 71 72 72 68 61 55 55 50 50 54 48 37 32 29 33 32 29 24 21 19 18 18 18 20 22 25 27
20 16 18 23 28 29 26 29 40 46 44 49 61 77 83 84 76 74 73 78 80 78 76 75 76 70 62 59 54 50 50 54 45 36 37 34 34 37 31 24 22 19 20 20 22 25 25 25 25
21 19 21 24 28 31 30 31 43 40 51 54 60 68 75 79 73 70 73 78 78 81 80 81 79 73 70 62 58 57 59 49 40 43 38 36 42 32 30 29 26 20 21 25 26 26 26 26 27
21 22 22 22 26 28 28 34 52 44 46 55 60 68 74 71 68 68 68 77 81 83 84 83 84 81 81 73 65 63 59 46 45 41 38 43 35 35 36 28 22 24 27 31 28 28 29 30 32
22 22 23 22 26 29 40 46 53 53 52 57 61 73 74 75 71 69 73 76 81 81 85 87 87 86 86 79 71 59 51 47 47 39 43 43 37 34 32 25 26 30 35 33 32 33 37 42 42
23 23 25 25 27 33 38 45 49 57 61 67 73 75 77 76 70 72 72 76 78 77 83 92 90 95 92 82 74 59 51 49 44 45 42 41 44 41 38 32 31 36 37 37 37 42 47 48 48
25 28 30 30 35 44 50 50 54 58 66 71 73 72 78 78 74 73 74 74 71 76 85 91 96 97 95 78 64 55 51 49 48 49 50 44 39 33 29 30 32 35 39 44 44 45 47 48 52
27 32 32 36 39 42 51 51 54 58 65 66 68 74 78 79 78 74 70 70 71 76 89 93 99 99 89 70 55 52 52 54 56 45 37 36 32 30 31 34 38 42 45 46 50 53 50 49 46
28 39 35 39 44 47 56 59 61 59 64 71 73 75 77 77 76 74 75 75 75 87 93 97 95 92 78 66 67 66 65 54 38 32 31 30 31 34 37 42 42 44 43 48 54 50 44 45 42
34 42 36 41 45 53 56 60 64 65 70 73 75 77 79 80 80 80 79 78 78 82 87 96 94 88 83 82 79 64 40 30 33 34 37 41 40 39 43 44 45 47 54 55 47 44 43 42 36
39 43 41 40 47 53 57 59 62 66 69 72 76 81 85 85 85 80 83 84 87 91 95 93 94 91 89 78 62 50 44 42 42 43 43 40 42 47 48 49 54 58 54 50 46 43 43 37 35
42 43 40 41 45 52 59 58 63 60 64 67 72 77 83 84 83 80 94 91 93 88 84 83 82 83 76 67 56 41 36 35 44 48 45 43 45 46 45 45 47 53 51 51 48 43 38 38 38
42 37 40 41 49 56 61 62 64 62 70 67 64 69 80 87 83 78 81 74 68 54 56 57 49 42 37 32 32 34 42 46 51 50 52 50 51 47 44 46 47 47 48 49 47 41 38 38 37
41 44 46 48 50 58 59 60 57 62 69 63 58 56 57 57 53 55 53 42 40 41 44 45 45 48 46 42 45 48 51 52 53 57 58 54 56 50 44 45 45 47 49 49 43 38 35 35 35
42 48 57 60 54 53 57 58 60 62 60 64 56 45 46 44 38 37 40 39 42 47 51 50 52 52 47 48 49 55 58 59 62 64 64 62 54 47 45 45 48 47 45 40 35 34 36 38 38
43 47 48 60 59 56 54 57 60 61 54 57 48 46 45 50 44 37 34 39 42 44 48 53 52 48 46 52 62 63 66 71 75 74 69 58 47 43 43 44 46 43 37 34 36 38 38 38 36
43 46 49 56 59 55 53 51 63 68 63 63 49 49 45 46 45 38 35 37 41 47 50 55 54 49 50 55 61 63 61 64 63 57 51 47 42 43 44 45 41 35 35 38 41 42 38 36 34
45 44 48 50 53 55 55 53 57 66 62 62 56 51 45 44 41 37 36 38 44 50 53 56 60 62 64 61 59 58 58 62 56 53 52 52 46 44 44 39 36 36 37 40 43 42 42 40 32
47 44 45 47 45 46 46 47 50 58 59 57 69 58 43 42 44 45 43 42 44 47 46 52 61 58 59 56 56 61 61 60 60 60 57 57 50 45 41 37 36 36 40 45 48 47 45 41 39
45 45 47 47 45 40 41 44 43 50 55 49 53 58 44 43 44 45 44 44 43 40 43 48 60 62 65 62 61 64 66 65 64 63 59 56 54 45 39 38 40 42 47 52 55 53 53 50 54
48 49 50 48 39 41 38 37 44 42 50 53 53 52 44 44 40 41 41 39 40 41 41 50 58 61 66 68 62 60 66 68 71 71 59 57 55 47 44 45 48 53 56 59 59 66 69 67 53
51 48 49 46 43 41 43 42 37 39 49 49 52 51 46 35 36 41 45 47 45 48 51 54 59 61 66 67 66 59 68 75 79 76 60 60 59 52 50 52 52 62 65 66 74 79 70 65 52
47 45 44 42 42 43 45 42 36 37 44 47 45 50 51 51 45 44 48 54 53 51 53 62 74 74 74 68 68 61 72 84 80 77 69 64 62 56 59 63 67 71 78 87 93 89 71 55 58
43 43 44 44 44 50 46 45 40 40 39 44 47 48 50 51 44 43 48 54 56 56 57 72 88 70 74 72 69 64 66 75 74 70 69 65 66 62 69 72 71 73 84 93 92 74 59 59 56
42 44 48 44 56 53 50 50 39 35 35 37 42 44 44 42 42 46 47 49 56 55 58 66 86 84 73 74 74 64 62 69 69 70 67 68 70 73 77 82 83 80 74 85 78 61 60 55 56
44 44 51 42 56 49 50 45 30 35 34 35 38 38 37 36 35 39 44 44 50 53 55 65 83 79 67 68 62 55 56 65 67 70 73 77 77 80 83 81 70 75 79 77 62 63 59 61 65
49 49 45 58 65 63 48 37 28 32 38 39 39 38 37 39 38 33 36 39 45 43 52 58 70 63 52 53 49 49 58 59 65 77 74 73 78 79 72 71 73 78 74 71 67 66 65 71 64
48 48 52 56 55 57 51 46 37 28 38 41 38 37 33 27 27 30 33 36 35 39 43 53 51 42 45 39 40 44 49 54 64 66 79 82 81 76 71 70 76 77 73 69 70 74 75 64 60
50 46 46 51 59 61 59 44 40 27 31 34 38 36 30 27 25 27 29 32 31 32 30 37 34 34 33 37 42 50 67 74 75 84 84 77 76 77 72 73 74 70 70 75 81 76 64 61 66
44 45 49 59 54 68 62 40 33 29 31 37 32 29 29 31 28 25 23 24 25 30 34 38 45 45 48 58 65 76 79 75 76 75 76 73 73 72 73 75 72 74 75 81 83 73 76 71 68

GFSSGP_prec_cthk_033.txt.gz
RH
21 19 17 19 22 24 24 22 27 36 44 58 59 63 63 68 71 71 78 80 78 75 78 79 74 70 64 61 56 52 46 39 37 49 41 33 31 33 33 32 25 21 19 20 22 23 24 24 24
20 19 18 19 20 22 23 24 38 38 48 53 64 76 76 74 81 79 76 76 78 80 82 83 78 75 70 62 59 54 44 42 47 45 35 33 33 36 39 33 27 24 22 22 23 24 24 27 27
19 19 20 21 21 23 27 29 37 40 48 55 59 74 82 78 82 81 74 76 78 80 78 82 81 80 75 65 64 59 44 48 57 41 34 39 35 44 37 30 28 29 25 24 25 28 29 29 31
20 22 20 21 24 25 29 35 47 44 44 58 65 72 74 74 74 71 70 74 76 79 81 82 83 83 77 71 65 59 44 55 46 36 39 37 42 41 33 34 33 30 28 27 30 35 35 35 37
22 21 22 22 24 26 31 45 51 50 52 56 63 72 76 73 75 73 70 72 77 80 83 86 87 84 81 78 69 57 49 62 46 42 42 41 42 43 39 34 32 31 31 33 36 37 37 41 46
24 23 24 24 24 34 37 44 50 51 56 61 64 68 75 76 80 79 74 73 78 79 83 92 91 88 88 86 74 64 59 49 45 47 43 46 45 40 41 37 35 36 39 39 40 40 44 46 48
24 26 28 29 41 46 53 51 54 54 55 63 69 70 74 76 75 74 76 77 76 81 86 93 91 97 97 83 70 59 55 49 48 46 48 46 48 41 39 37 37 39 39 40 46 49 49 48 49
26 30 32 37 41 44 56 59 57 62 66 67 67 67 71 75 78 77 77 75 76 75 87 87 92 96 97 88 75 63 55 52 49 49 51 52 42 37 35 37 38 39 44 47 50 48 47 45 43
28 36 37 43 47 49 57 61 66 63 66 67 70 69 71 75 77 76 76 76 76 75 77 89 96 94 92 80 67 61 55 54 56 52 47 42 41 40 39 37 43 47 48 50 52 49 43 41 38
35 41 36 45 48 51 58 59 64 69 71 70 73 71 71 74 78 78 81 79 80 81 91 99 98 94 84 71 61 57 62 64 55 44 38 42 41 40 44 43 45 49 53 56 52 44 41 38 32
38 41 38 41 44 51 58 59 62 70 70 69 73 74 73 78 83 79 81 81 82 86 88 90 93 81 80 73 72 75 67 57 42 39 44 47 47 47 50 48 49 53 58 57 49 47 40 34 33
38 42 41 41 45 51 59 62 61 65 66 66 65 72 78 82 83 82 87 89 92 89 94 95 94 93 92 86 76 66 58 49 50 50 50 48 47 46 47 47 50 51 52 49 48 43 35 34 35
37 39 42 41 44 57 61 61 57 65 72 62 63 83 89 84 87 92 93 89 88 87 90 93 93 90 89 80 68 55 48 47 45 46 46 46 51 52 50 48 49 48 45 47 46 38 34 34 33
41 39 44 46 53 59 59 61 59 63 58 60 57 73 88 89 83 79 79 69 57 55 56 54 58 58 53 41 35 38 43 49 49 52 55 56 60 54 48 47 47 46 43 44 38 36 34 34 34
45 53 59 64 62 62 61 60 61 59 61 62 56 56 64 63 59 53 46 41 46 49 50 52 49 47 47 49 47 46 49 50 56 57 58 62 63 52 46 45 46 44 41 40 37 34 35 36 36
45 54 54 65 65 65 60 65 66 59 58 61 50 54 42 38 41 42 43 45 49 51 53 56 56 58 54 49 48 47 52 57 62 67 72 71 60 48 45 47 46 42 39 36 33 38 39 38 38
45 48 49 58 64 62 60 61 65 64 62 48 46 46 50 39 40 40 42 43 45 53 56 53 55 56 50 50 53 59 62 65 71 75 68 61 54 47 46 45 42 39 35 34 38 41 43 42 39
48 48 48 54 57 57 55 55 63 65 62 52 47 47 42 40 38 40 40 44 51 56 60 61 60 59 56 52 52 53 54 55 64 64 55 54 50 46 45 45 42 37 35 37 42 45 46 43 39
44 45 47 45 49 50 49 48 54 60 62 66 59 45 42 40 40 41 43 45 50 55 60 63 64 62 57 55 59 60 63 69 69 63 58 55 54 52 48 45 41 39 40 42 46 48 46 49 51
41 44 46 46 45 45 45 47 45 51 54 57 64 52 41 41 44 42 43 46 47 47 48 58 65 61 61 62 61 61 66 67 66 63 64 62 56 54 52 46 42 44 45 48 54 56 60 66 69
41 44 49 47 45 42 36 40 45 44 48 56 59 60 52 47 39 41 39 39 38 39 41 49 59 63 63 64 64 65 65 73 75 71 72 77 70 60 56 50 46 50 54 54 58 70 79 84 80
48 42 48 49 45 39 37 35 35 40 46 49 54 53 44 44 42 41 39 38 37 39 48 53 60 65 66 71 75 69 67 67 75 85 88 82 76 74 66 65 54 55 60 61 69 76 74 83 82
51 48 50 48 45 46 43 38 38 35 40 43 48 50 53 42 38 39 44 48 49 53 56 60 66 72 76 82 83 82 76 67 75 83 86 79 75 76 73 70 60 64 71 76 78 89 75 83 78
51 49 48 49 47 47 45 44 36 32 33 38 42 47 51 54 50 46 47 52 54 58 62 66 68 75 82 85 80 79 76 70 67 69 73 72 73 73 74 73 71 78 81 82 79 73 79 62 62
48 49 50 43 50 46 48 47 39 36 33 34 36 41 46 50 52 49 50 50 54 58 64 68 71 79 80 76 81 78 74 69 65 64 68 77 78 83 80 78 82 84 82 77 74 72 66 65 59
46 48 51 47 46 39 48 44 33 30 32 37 35 36 40 40 42 40 39 47 51 52 57 63 70 76 80 79 79 66 62 60 60 63 71 73 81 82 79 82 89 83 78 80 75 80 66 64 67
47 50 47 55 61 54 42 38 31 29 28 38 41 43 41 40 36 36 38 42 45 48 55 58 62 71 81 80 58 56 58 57 58 68 77 81 81 80 86 87 82 81 76 75 81 65 70 76 70
51 51 55 55 53 53 45 43 34 33 29 34 36 36 39 39 30 28 30 33 36 40 44 49 56 60 62 53 49 45 48 51 62 76 76 82 86 82 77 76 79 79 71 70 69 73 82 77 67
53 53 53 50 51 49 50 42 37 32 31 32 34 41 38 34 31 27 25 26 30 34 36 39 39 41 40 43 50 55 59 66 78 83 86 88 91 84 74 73 77 74 79 77 74 81 88 78 75
47 48 49 52 48 53 54 44 40 30 33 31 30 30 34 34 34 35 31 26 25 25 28 29 30 38 51 61 65 69 73 77 83 85 84 88 82 68 73 77 77 76 71 76 81 84 89 80 77

GFSSGP_prec_cthk_036.txt.gz
RH
18 18 19 19 22 19 25 25 25 32 34 52 55 58 60 65 70 67 68 71 76 78 76 71 68 69 68 69 70 64 55 45 31 31 38 39 32 30 35 35 32 27 27 26 25 25 24 24 23
18 17 19 21 19 23 25 25 29 39 40 47 59 69 72 77 73 67 71 76 84 84 79 81 74 72 70 68 64 60 50 39 31 42 44 35 30 32 40 40 36 31 30 30 29 28 26 26 27
19 18 23 23 21 23 25 28 35 37 40 47 55 66 76 91 79 69 67 87 93 88 83 86 78 76 73 70 65 55 47 42 36 46 39 31 35 40 42 38 34 33 33 34 34 30 29 32 32
21 23 20 19 25 24 23 34 42 41 41 51 57 59 81 81 80 73 75 69 88 85 83 82 80 77 77 73 64 51 46 44 49 48 38 37 38 41 39 34 35 37 37 38 34 32 35 36 37
21 22 25 23 23 22 28 40 46 45 47 51 58 66 77 78 76 79 76 82 84 83 83 85 84 83 80 74 64 54 48 45 49 51 43 42 42 42 38 40 41 39 39 35 33 36 38 40 43
25 22 26 28 24 32 37 48 52 53 52 58 60 61 72 77 82 77 76 77 81 84 88 90 89 86 82 77 68 62 55 51 56 50 45 45 44 45 42 40 42 42 37 37 40 42 45 44 46
25 26 28 26 44 47 57 56 54 55 56 59 67 68 72 72 75 77 76 80 81 85 88 88 87 92 89 80 73 61 57 59 55 44 49 47 47 44 45 44 45 44 42 44 45 46 47 44 44
26 30 28 35 45 53 58 56 56 58 64 66 68 70 71 69 71 72 75 79 84 86 91 91 90 95 93 82 69 62 62 60 51 50 52 51 52 47 44 46 42 42 42 46 51 50 45 44 41
26 30 36 43 45 47 54 62 65 62 63 68 67 69 68 72 72 76 76 76 79 86 84 86 91 94 94 87 80 70 62 58 51 52 54 59 51 48 46 42 41 43 49 54 53 50 49 42 32
30 32 37 43 42 43 51 54 59 65 68 71 69 69 72 72 75 75 73 74 80 82 85 84 86 88 90 88 75 67 66 59 56 60 60 56 51 51 49 43 42 48 55 56 57 53 48 37 31
34 40 36 37 40 42 52 57 63 65 68 69 73 74 77 75 76 76 75 76 79 84 83 86 89 90 90 89 88 82 69 61 67 63 60 53 52 51 47 47 50 55 57 62 59 52 43 33 33
34 39 38 35 41 49 58 61 63 62 69 68 65 68 75 79 82 75 78 82 82 81 87 90 91 91 93 92 86 72 69 75 67 61 57 56 51 51 49 50 51 53 58 56 49 47 35 34 32
34 38 39 39 43 54 58 61 59 68 74 65 66 83 83 87 82 82 84 87 89 90 90 92 91 93 88 78 72 77 76 71 64 58 59 57 55 50 48 49 50 52 50 47 46 39 35 33 33
41 41 46 42 53 60 61 59 59 61 63 65 66 90 91 92 89 91 91 81 83 86 90 90 93 89 86 85 84 78 75 64 57 56 55 48 53 51 55 55 51 47 47 44 42 37 34 36 36
44 52 51 54 66 64 60 58 59 60 67 68 62 72 91 91 88 78 68 68 64 70 78 76 76 82 83 80 73 65 55 52 52 54 55 57 59 64 53 47 48 46 42 40 38 34 34 37 36
44 50 57 65 61 60 62 61 60 58 62 61 60 54 56 64 60 56 57 58 61 62 60 62 71 77 52 45 43 44 51 49 58 59 61 65 71 65 48 46 44 45 41 38 36 34 36 38 38
39 47 52 57 59 62 62 59 62 64 57 49 53 49 40 44 49 52 53 51 55 56 58 59 57 58 55 55 51 48 51 54 63 65 73 77 74 56 51 44 43 42 40 37 32 34 38 42 43
45 46 50 57 56 57 56 55 59 62 62 49 50 49 43 46 49 50 49 51 55 57 58 58 62 67 65 62 57 61 62 71 69 74 72 68 58 49 45 44 43 43 39 33 34 38 44 46 51
40 43 46 48 48 54 49 50 54 58 64 59 50 47 44 40 44 43 47 51 58 59 62 64 66 66 66 59 53 51 58 59 60 66 62 58 54 52 49 46 43 41 37 37 40 44 48 56 61
36 41 46 42 44 48 45 43 43 51 52 62 55 45 43 42 42 44 48 52 54 57 63 67 71 74 70 65 57 64 67 67 71 66 62 60 58 60 59 54 46 45 42 46 50 53 55 60 67
37 43 43 42 43 47 42 40 40 41 47 51 57 51 43 42 41 44 48 51 50 49 53 60 68 71 69 70 68 68 69 70 73 73 70 70 72 76 74 71 68 58 55 52 56 59 67 71 72
45 40 41 44 44 43 37 39 34 36 40 45 47 48 41 42 43 44 45 43 41 43 47 50 57 64 71 72 73 74 69 69 73 78 82 85 87 88 82 74 72 66 62 61 63 68 77 79 77
47 45 44 45 47 45 42 37 40 34 31 38 44 42 44 37 36 37 37 40 42 44 48 50 53 58 65 71 73 77 77 75 79 76 74 73 81 85 82 79 79 78 78 71 73 79 84 81 72
44 44 46 48 48 48 42 39 40 37 31 34 38 45 45 46 39 36 39 46 47 49 52 53 54 58 69 79 81 88 82 84 83 84 79 70 70 79 87 88 87 82 78 78 80 84 85 72 70
43 46 50 50 51 49 43 40 40 36 31 30 30 38 43 46 49 51 53 46 47 52 57 60 64 70 80 80 86 87 84 86 87 84 74 68 67 79 90 87 84 85 84 79 87 85 77 73 69
43 47 50 54 47 42 44 39 39 33 29 25 29 32 35 45 50 50 53 56 57 55 64 68 68 70 85 67 85 82 81 75 68 64 63 65 72 85 86 86 86 81 77 86 80 73 72 71 60
46 45 47 51 51 46 43 38 31 29 28 26 32 36 33 42 45 46 50 50 52 53 57 64 69 71 71 85 84 64 61 54 56 60 60 70 80 89 90 89 88 89 86 74 77 76 74 72 72
48 47 48 48 55 53 45 41 39 37 32 28 29 34 39 42 44 46 44 46 51 53 53 55 60 64 64 64 70 57 50 52 57 65 70 81 88 89 89 93 93 85 84 77 81 78 84 79 84
48 47 47 51 51 50 47 42 37 38 35 34 32 34 35 32 35 37 33 31 34 39 45 48 49 51 54 53 51 46 56 67 72 75 79 82 88 91 93 95 93 83 75 82 78 88 80 83 93
49 47 49 52 50 47 49 38 36 38 38 33 36 32 32 38 41 41 41 39 32 32 37 42 41 43 47 48 47 59 73 79 78 66 68 81 86 88 89 90 87 78 81 80 83 80 87 96 97

GFSSGP_prec_cthk_039.txt.gz
RH
14 16 18 20 23 23 25 25 22 29 28 40 36 65 41 62 62 62 75 86 70 66 70 67 73 75 75 74 73 72 68 56 39 31 30 37 32 30 32 34 36 34 30 30 29 28 26 23 22
17 17 18 23 25 25 22 22 26 26 51 70 44 52 65 71 65 62 67 76 74 76 76 74 79 80 79 76 74 72 66 49 35 36 37 36 29 32 35 37 41 39 34 33 32 30 29 28 27
15 18 24 33 30 23 25 30 26 51 55 39 49 57 64 79 62 69 73 73 77 75 76 78 81 85 81 77 77 72 60 43 41 45 37 33 32 35 38 39 43 41 38 37 37 35 33 32 33
21 28 26 19 26 22 27 33 49 49 52 42 53 60 54 61 77 75 80 71 82 88 82 82 81 81 79 78 74 68 56 44 41 47 44 36 36 41 39 40 42 40 40 40 40 38 35 35 38
19 26 27 33 26 26 28 34 54 58 69 49 54 77 49 65 71 78 76 79 74 98 94 88 83 81 76 73 70 66 54 43 42 46 48 41 43 43 42 45 42 42 43 44 42 38 39 42 44
29 25 33 29 25 26 36 48 54 55 54 54 51 77 55 71 76 78 86 77 77 81 91 87 87 81 75 73 66 62 50 45 49 48 51 48 46 43 48 47 47 43 43 43 42 42 42 44 42
25 33 32 27 30 47 52 42 53 65 68 68 61 65 69 67 76 83 81 81 87 88 97 89 96 91 80 76 64 67 56 48 50 52 56 46 47 47 51 49 44 44 44 46 45 49 44 40 37
24 27 30 30 50 58 53 46 50 53 72 60 63 69 74 65 67 73 75 79 82 89 97 93 97 94 85 78 75 63 56 57 58 57 53 51 50 51 50 46 46 47 47 47 50 49 48 40 33
20 31 32 38 39 50 50 57 59 55 60 61 67 70 73 69 67 68 76 79 81 89 88 87 89 83 81 80 72 66 65 61 57 63 59 56 56 60 55 51 48 43 43 49 51 53 48 39 30
24 35 34 37 38 37 45 52 61 55 67 64 62 70 67 67 69 73 75 78 81 85 86 90 90 87 84 87 83 74 66 66 69 64 66 65 63 64 57 52 47 43 51 56 56 55 47 37 33
32 43 38 38 38 39 45 58 60 60 67 78 72 74 73 75 73 72 72 76 79 83 82 84 86 86 86 83 79 80 76 78 67 72 73 73 67 65 58 57 50 48 57 56 60 55 45 33 32
27 36 34 37 36 39 56 62 65 63 66 68 66 65 68 74 78 75 75 74 77 81 83 84 85 83 82 80 87 92 82 73 72 73 77 73 66 66 64 60 55 57 58 56 59 48 36 31 30
31 39 36 38 39 45 53 58 59 61 65 62 59 66 80 76 77 78 76 76 81 84 84 95 92 94 84 91 96 86 82 85 79 80 75 72 70 71 67 62 59 57 56 53 45 43 33 32 34
36 32 43 38 43 49 55 60 57 63 53 59 61 68 88 92 83 83 84 85 87 89 90 91 92 96 97 92 92 93 92 84 85 78 72 71 71 68 64 60 57 55 50 47 44 37 35 36 36
31 38 50 53 52 59 60 66 70 51 59 66 64 60 85 97 90 89 79 79 84 91 93 93 94 94 95 94 92 89 84 86 76 72 66 64 64 60 64 63 58 51 49 46 41 39 34 36 36
31 41 54 49 49 60 60 84 55 55 61 61 67 59 74 84 72 66 68 67 71 82 88 86 91 92 92 90 91 87 82 74 62 65 63 57 66 67 69 55 47 46 46 43 39 38 35 36 37
36 44 50 54 51 56 65 83 54 51 54 49 54 56 53 59 62 63 63 59 59 66 73 77 78 74 69 69 69 66 62 58 59 68 70 64 69 78 72 51 49 44 46 42 40 35 35 38 40
41 39 45 61 55 47 52 53 66 48 54 46 43 46 36 41 52 56 54 60 62 58 55 64 72 62 65 68 57 57 54 55 66 70 74 72 83 72 59 52 48 50 48 43 39 35 37 41 44
44 38 40 50 54 47 55 49 68 55 51 55 45 38 38 46 51 49 51 55 56 59 59 59 61 69 67 62 58 57 62 68 79 83 87 78 71 61 57 57 52 52 47 45 41 43 45 48 51
41 40 38 41 34 35 45 42 48 55 47 53 51 40 39 41 48 46 49 53 57 58 60 62 65 66 70 64 56 55 55 66 72 74 82 72 65 63 66 68 67 61 58 55 53 51 51 53 59
42 41 40 40 47 36 38 38 40 50 44 49 53 47 40 37 39 40 44 52 53 57 58 61 66 65 71 68 67 63 66 68 71 76 75 70 71 75 78 78 76 72 71 68 63 56 56 59 65
42 39 44 40 39 44 41 45 48 46 40 43 48 50 43 41 40 39 41 49 47 49 52 55 60 63 70 73 79 74 72 72 74 82 84 82 81 85 89 86 86 86 80 75 71 68 63 70 74
48 53 41 42 45 45 38 36 45 38 38 42 41 46 44 45 41 40 39 41 42 41 42 46 51 59 66 68 75 79 77 79 74 76 79 83 80 77 79 82 87 87 86 80 77 75 73 77 78
46 50 47 42 46 48 42 39 44 45 37 40 46 43 48 44 46 40 40 39 37 40 41 46 50 51 59 65 66 78 87 85 88 91 82 82 83 80 72 72 79 89 89 85 82 75 76 80 80
43 50 54 49 52 45 43 38 37 43 39 37 39 48 49 44 47 50 53 49 49 45 44 51 56 59 57 69 77 72 73 86 86 87 91 86 82 73 70 73 83 88 89 88 85 84 77 85 83
40 49 54 87 55 46 48 34 36 39 37 31 30 31 37 51 47 46 51 56 60 62 65 60 61 66 79 81 79 71 78 77 79 79 90 80 74 67 67 75 91 91 90 88 87 85 83 81 79
52 49 47 57 50 46 43 38 32 29 28 30 31 31 32 35 53 50 53 55 61 67 70 69 70 75 78 69 79 73 74 57 58 58 65 67 66 69 76 90 91 91 90 94 93 86 86 82 85
42 57 52 51 56 59 41 41 38 41 37 34 32 33 38 43 44 49 54 60 60 62 67 72 73 73 71 72 66 79 64 51 52 57 67 71 76 80 85 89 91 91 94 91 88 84 84 78 82
40 47 51 53 52 58 58 42 47 41 37 36 41 35 35 40 47 49 50 50 51 55 58 58 64 70 67 62 64 62 53 52 50 65 73 73 63 60 69 81 82 85 84 88 87 82 75 85 93
52 44 51 57 54 54 50 43 46 38 37 38 36 38 34 34 41 42 41 40 38 41 44 48 56 61 63 59 57 58 60 52 61 72 75 67 59 60 63 68 82 86 85 81 79 72 80 89 96

GFSSGP_prec_cthk_042.txt.gz
RH
11 14 14 18 26 27 23 22 23 23 30 38 43 60 55 54 48 52 61 52 63 94 83 73 72 70 70 71 69 67 65 55 39 32 31 30 31 31 33 34 33 36 32 30 28 26 27 26 26
11 17 17 21 29 32 27 29 22 27 44 37 35 34 44 74 74 73 82 71 65 70 84 81 72 74 73 75 75 75 69 53 37 35 39 34 32 29 32 37 38 36 37 34 32 32 32 32 31
11 15 20 30 35 30 26 28 33 42 32 30 32 35 79 96 74 73 84 82 92 79 77 83 82 85 83 85 84 82 70 48 37 41 39 34 33 32 33 38 40 40 41 38 38 37 38 35 32
18 23 29 27 24 27 25 28 35 43 51 46 48 69 79 75 66 58 78 73 83 87 86 90 89 88 88 95 89 82 67 48 42 40 40 41 37 36 36 40 40 42 43 39 41 41 40 37 33
20 24 32 34 34 25 26 24 28 44 40 36 51 63 75 79 55 59 61 71 63 81 81 86 83 89 86 91 93 82 65 47 44 43 40 43 43 42 41 43 45 45 43 44 46 44 42 40 35
27 33 35 35 31 33 30 27 29 47 50 42 49 53 53 53 62 72 62 66 68 73 71 76 85 92 85 88 87 73 58 45 46 44 40 47 44 46 46 47 49 46 47 46 46 46 40 37 32
23 33 33 31 27 38 44 43 51 66 62 80 71 82 71 60 61 76 78 69 67 85 90 79 91 95 94 89 82 68 55 43 49 45 49 50 48 49 50 52 52 53 47 47 49 46 39 32 27
23 29 33 30 35 39 44 52 57 56 76 44 59 72 69 64 65 70 78 72 77 90 94 98 96 98 95 87 76 68 58 52 58 53 55 58 52 53 54 54 52 50 50 51 49 48 42 32 26
26 32 37 35 36 42 39 48 48 52 57 57 61 63 67 78 70 68 71 77 80 84 94 85 87 92 92 89 77 67 67 68 59 57 60 59 58 58 57 57 52 54 53 49 48 48 45 32 29
26 36 39 35 32 32 35 43 49 39 60 71 64 56 59 68 67 66 69 71 75 84 89 87 93 98 95 84 86 79 72 63 61 63 66 67 65 63 62 61 56 56 53 50 51 52 45 37 33
30 35 42 34 35 26 37 42 57 60 78 55 61 67 59 67 70 68 67 72 76 82 79 84 90 95 91 87 80 72 69 67 68 76 73 73 70 69 67 66 63 60 60 60 55 55 44 37 31
26 29 34 31 33 30 32 63 71 57 73 60 60 62 57 65 65 67 73 73 77 80 80 78 84 87 84 77 73 79 78 77 78 75 74 74 76 72 72 68 67 66 64 60 54 53 40 31 28
34 31 33 34 32 30 37 49 59 70 54 50 56 55 61 68 76 69 69 74 76 78 78 77 78 83 80 77 78 78 84 87 84 79 83 82 77 74 71 71 68 65 60 55 51 45 32 28 30
37 35 27 42 30 36 47 62 67 81 55 53 55 59 59 65 78 82 77 75 77 79 82 83 80 89 85 91 93 96 89 93 85 83 84 81 76 75 79 73 67 59 56 51 44 41 32 32 31
27 28 40 52 53 54 54 66 70 70 63 55 51 50 65 71 89 81 75 74 78 81 86 87 86 86 85 89 94 94 93 91 85 85 84 79 77 78 69 62 62 59 58 51 45 41 34 32 32
28 33 40 52 52 55 52 60 56 60 67 57 50 58 62 68 69 71 69 68 75 78 84 87 87 91 90 94 92 92 92 90 89 82 80 73 64 69 65 66 63 60 52 48 47 43 35 33 34
36 38 42 46 48 50 62 76 59 66 67 54 49 55 52 63 67 62 62 58 62 67 74 82 84 89 93 93 92 91 90 90 86 76 63 53 57 78 70 70 61 54 51 48 47 42 35 33 37
45 46 47 53 49 43 67 75 63 72 52 50 44 41 44 49 56 50 45 50 56 56 56 60 65 73 76 77 82 79 75 70 60 55 76 77 63 69 77 79 58 51 53 50 46 43 39 40 47
38 43 47 50 45 42 51 67 72 66 55 46 43 30 28 34 46 44 49 48 46 50 53 50 58 63 66 64 63 59 59 60 54 73 83 73 74 77 72 64 57 55 55 53 54 49 45 47 53
35 36 40 38 44 36 33 40 59 60 54 39 41 39 33 38 43 41 43 50 51 48 47 53 52 54 58 54 50 52 52 53 58 64 70 77 78 70 65 66 71 68 66 63 60 56 56 57 60
27 30 37 42 49 44 34 36 41 58 60 51 41 46 42 37 37 40 38 44 51 50 49 51 55 59 56 52 48 51 50 50 54 59 67 82 78 83 70 75 77 79 78 77 75 72 68 67 68
28 30 41 46 47 39 47 46 40 54 53 52 39 40 41 44 37 36 39 42 46 50 49 50 50 52 55 56 63 64 57 59 59 67 76 80 76 78 75 81 87 86 87 84 87 84 78 78 76
36 42 43 41 37 43 44 42 33 40 46 58 47 42 44 41 43 40 37 36 41 43 44 44 47 49 52 61 62 70 67 70 74 73 67 76 81 80 85 83 76 76 79 87 91 88 87 86 84
43 44 52 44 34 46 42 40 48 47 47 47 50 53 51 46 46 48 43 42 37 37 37 41 43 47 55 55 65 70 78 76 75 88 87 84 77 80 82 85 86 80 81 81 90 90 89 89 87
37 43 46 50 53 49 43 41 40 43 41 45 42 43 44 47 49 47 51 49 47 45 42 45 48 50 54 59 75 80 76 83 79 77 88 93 89 84 84 87 84 82 77 84 93 89 89 91 88
37 39 47 73 83 63 55 44 34 35 38 40 33 32 40 48 48 48 46 49 53 55 52 52 51 55 59 63 68 77 66 71 71 65 67 76 77 79 82 82 78 73 84 89 95 92 94 91 90
45 41 40 69 81 80 73 43 34 32 35 29 29 31 31 34 48 45 51 43 47 55 57 55 60 60 61 63 61 68 66 63 69 52 53 56 57 67 78 82 84 89 87 92 88 91 89 87 84
35 49 52 54 70 74 45 38 39 42 41 40 32 32 36 35 32 40 62 66 54 50 54 57 58 59 65 68 68 69 62 60 69 52 48 49 62 73 76 67 62 66 73 76 81 85 87 87 84
36 37 47 51 54 61 53 45 52 54 43 42 36 35 34 33 36 36 39 47 55 63 75 73 65 65 69 74 74 73 68 64 60 52 50 52 66 72 69 65 64 66 70 71 74 79 77 81 76
37 36 37 60 51 57 64 46 47 50 47 43 36 32 36 33 33 37 36 41 47 56 64 60 64 69 69 67 64 78 75 70 54 60 58 69 71 75 74 66 65 66 70 74 76 84 81 80 80

GFSSGP_prec_cthk_045.txt.gz
RH
11 13 16 18 23 24 31 30 30 31 36 42 40 40 46 48 53 63 63 58 55 56 91 98 94 85 80 74 67 63 58 44 35 34 33 31 29 28 33 37 32 31 30 27 26 25 27 28 30
11 13 16 21 22 30 32 28 31 43 52 49 40 42 43 55 55 64 61 57 52 61 59 74 97 91 86 76 73 69 60 44 38 37 37 37 34 31 32 33 36 35 34 34 33 31 31 33 36
11 18 22 23 28 34 34 33 35 41 46 49 47 50 53 59 56 58 57 68 61 68 72 73 90 92 86 86 75 74 62 43 39 40 41 40 36 33 32 34 38 38 40 40 37 34 35 38 40
16 23 28 28 29 30 35 41 35 37 41 50 55 69 63 59 64 60 67 54 79 97 92 95 89 87 87 85 82 78 60 42 45 42 40 40 41 37 35 38 41 40 41 42 40 36 36 39 41
22 26 27 31 39 34 36 33 30 35 43 52 50 56 59 64 64 64 66 61 69 75 75 74 90 97 93 94 88 84 58 46 49 44 40 40 43 43 43 41 43 44 43 43 44 42 38 39 40
24 26 34 35 40 44 37 33 30 43 41 42 49 54 58 64 70 79 70 66 71 74 70 66 92 94 94 88 97 86 57 48 48 44 43 43 43 44 47 47 47 47 48 47 46 39 34 32 34
23 26 30 32 35 40 35 36 40 42 40 56 50 59 63 69 70 80 85 85 78 73 78 80 96 96 86 87 88 82 60 48 46 44 47 47 45 44 51 51 53 53 53 49 44 40 32 28 30
22 29 33 37 40 44 40 40 42 48 63 71 59 63 68 80 77 81 80 80 86 76 86 92 92 98 92 93 96 77 56 45 46 48 50 51 47 49 53 55 59 58 55 49 49 44 33 28 30
24 31 35 39 39 44 43 44 41 60 67 77 80 71 69 61 69 79 80 74 82 80 82 89 80 94 98 98 86 69 61 50 51 56 59 57 55 55 56 58 63 62 55 52 52 47 40 29 28
27 31 35 42 39 40 43 44 44 53 70 78 82 76 71 69 62 70 76 75 77 77 82 83 80 79 88 89 88 66 64 67 61 63 68 65 62 60 61 61 64 65 62 56 50 49 45 32 29
26 31 31 39 41 34 32 42 48 65 69 76 66 69 71 65 60 61 70 72 71 70 75 78 80 81 84 89 87 78 77 71 65 68 69 66 66 64 66 65 69 68 65 60 57 54 47 33 30
31 28 28 32 34 32 34 44 54 76 83 63 57 57 54 52 56 61 64 68 68 70 68 72 77 76 81 82 82 84 78 68 67 70 71 71 70 71 68 68 68 66 68 72 70 56 43 35 31
31 31 31 30 34 38 33 41 48 57 72 67 59 58 60 53 54 61 67 65 69 72 72 71 73 76 82 85 80 84 76 67 75 73 76 78 74 72 73 72 70 73 72 65 60 51 44 32 30
27 32 29 34 41 47 51 62 60 64 62 62 52 58 63 75 77 67 65 68 68 69 70 74 74 74 77 76 76 72 73 83 86 81 81 81 78 78 75 72 75 68 66 60 54 47 36 30 31
28 27 30 38 44 52 52 60 61 54 58 52 58 61 62 85 81 85 78 69 70 74 74 72 74 74 72 84 84 76 80 92 93 84 83 84 79 76 77 77 67 68 58 55 49 42 35 31 30
26 27 34 40 44 52 50 57 65 55 50 50 57 58 53 63 64 73 71 68 68 75 78 82 86 84 82 82 81 82 89 89 88 89 89 81 78 81 74 72 65 62 52 50 45 44 41 37 32
29 36 38 42 49 58 51 54 57 56 52 47 52 56 45 53 62 61 62 59 59 64 69 78 87 88 89 89 86 89 93 91 93 90 84 78 76 62 64 66 77 60 51 48 47 46 42 37 34
35 38 42 49 55 56 50 50 55 59 57 41 52 45 45 52 48 45 49 51 50 49 57 67 75 89 89 87 86 90 91 93 85 78 78 67 61 62 67 73 78 52 48 48 46 47 44 42 39
32 33 39 44 49 50 53 52 48 55 59 47 43 42 33 39 47 44 44 47 49 49 51 57 66 65 63 64 66 72 72 69 69 67 64 68 62 68 70 70 69 55 51 55 54 55 55 51 49
36 35 37 42 56 50 45 48 51 54 58 53 45 40 35 33 39 37 39 41 42 45 47 49 53 54 58 57 57 61 61 63 60 62 71 77 76 78 79 72 64 66 68 67 66 65 64 65 64
31 32 32 38 46 44 45 44 58 57 57 58 47 36 36 33 32 35 34 35 40 39 43 44 44 46 49 52 55 55 54 55 52 49 53 65 73 72 75 72 63 70 82 80 82 86 87 83 74
29 26 28 39 42 45 43 45 59 55 58 56 54 39 38 38 36 36 32 33 37 36 34 36 39 41 41 42 44 48 49 51 51 51 51 52 60 68 72 80 79 78 84 87 78 78 80 92 84
27 27 32 34 40 39 38 46 49 57 61 57 57 51 40 37 38 36 34 30 34 34 33 32 34 36 37 37 41 49 48 50 52 59 67 75 73 74 80 80 85 82 80 83 80 81 77 90 83
26 33 38 41 46 49 32 50 51 57 56 64 56 52 49 39 39 41 39 37 36 35 33 32 36 41 44 46 46 57 65 64 65 65 68 83 85 82 84 90 88 86 86 88 85 81 77 88 91
32 39 52 54 57 48 46 48 40 47 45 47 38 42 40 41 38 40 42 43 42 41 39 40 42 43 48 50 54 60 67 70 74 65 68 73 85 89 90 91 89 87 88 88 81 81 90 92 94
31 37 53 60 71 60 56 57 49 45 41 38 38 41 40 42 45 44 42 40 42 41 44 41 43 43 45 51 55 60 61 68 66 66 61 53 60 73 76 79 81 83 89 87 84 82 84 88 84
37 44 43 61 66 71 63 55 50 43 44 40 40 39 42 38 40 43 44 44 49 48 51 52 52 51 51 47 49 54 60 62 60 66 67 52 53 57 65 77 78 81 75 64 64 65 72 73 76
37 43 54 58 73 83 64 67 56 49 46 39 39 34 33 35 38 40 46 50 57 58 52 61 71 62 55 58 58 57 62 62 66 62 70 59 53 53 60 76 80 77 72 65 67 73 71 73 75
41 42 44 62 63 77 67 59 55 52 45 46 40 34 32 28 35 37 44 48 57 56 60 51 61 70 82 87 72 74 73 65 71 62 72 59 60 57 65 78 79 80 69 64 63 69 70 74 75
50 42 38 57 56 66 68 56 49 44 46 45 43 37 34 27 24 29 35 45 51 50 47 51 55 55 56 70 74 71 75 87 92 82 81 64 66 64 75 73 72 68 68 66 65 68 72 68 81

GFSSGP_prec_cthk_048.txt.gz
RH
13 13 15 15 20 26 33 32 35 38 44 51 52 52 60 60 68 76 61 55 66 69 75 78 73 93 86 76 82 67 49 37 34 35 35 31 28 29 33 30 28 27 27 26 28 28 30 28 29
13 13 16 22 25 32 34 31 36 45 56 44 51 53 52 54 58 61 70 65 67 65 68 67 71 91 92 86 85 71 47 40 36 36 34 34 35 33 31 32 29 32 33 33 34 34 34 34 33
13 19 23 27 31 34 33 32 37 49 52 43 52 52 52 51 53 52 55 64 67 67 68 72 61 62 98 92 90 73 46 42 42 38 37 38 40 36 31 33 33 39 41 38 38 39 38 36 34
15 21 27 31 31 33 32 33 40 45 48 42 45 52 53 50 52 53 54 59 61 64 60 72 72 73 77 93 89 71 48 45 44 41 42 42 40 36 34 35 37 40 39 39 38 41 41 38 39
20 26 30 30 32 33 39 48 47 42 43 43 44 42 46 44 45 53 58 67 68 67 59 54 91 93 92 94 93 70 46 48 46 44 46 43 39 38 39 42 43 42 40 38 42 44 43 41 41
23 26 29 33 32 32 43 51 53 49 49 50 49 49 47 45 45 58 64 72 79 78 79 80 91 97 98 98 92 72 47 47 48 48 47 44 40 41 42 46 47 46 43 43 40 44 46 40 35
22 24 30 31 33 38 48 52 50 51 51 51 51 59 54 58 59 60 68 79 74 76 78 79 88 91 98 98 90 70 48 47 51 51 49 45 43 46 45 47 48 49 49 48 42 43 41 41 32
22 28 33 33 33 44 48 49 47 45 50 50 57 66 63 59 64 68 70 74 80 84 91 89 89 95 97 94 95 78 59 54 52 51 50 50 48 51 50 50 50 53 57 52 46 39 35 34 31
25 32 33 31 35 40 47 45 45 45 45 48 64 65 69 70 65 58 70 74 74 79 90 93 96 81 93 98 98 90 73 57 53 51 52 50 50 53 54 56 55 58 64 59 47 45 37 33 29
26 30 31 30 32 42 43 40 42 42 47 59 64 55 65 72 68 64 62 73 76 74 83 86 90 79 80 91 95 87 71 60 58 58 59 57 57 58 57 61 60 64 64 62 54 50 44 30 28
25 28 28 28 33 39 42 42 39 37 40 53 47 49 55 62 62 63 58 62 67 72 74 77 82 81 80 85 91 88 63 58 66 62 62 62 60 66 68 63 63 62 67 66 60 54 46 33 32
24 26 28 29 33 34 39 46 51 51 52 52 48 50 55 59 62 57 59 59 64 68 67 71 75 82 79 83 81 78 68 62 66 67 63 58 64 71 68 64 63 65 68 67 60 53 50 46 39
30 29 32 31 34 41 49 57 63 65 60 60 51 48 51 62 68 66 65 64 63 71 73 71 72 76 78 84 77 64 62 63 70 68 63 67 69 70 66 64 65 68 69 70 68 63 51 43 36
26 27 28 32 37 47 48 56 58 60 59 51 50 49 57 75 77 76 67 66 67 64 68 76 73 76 77 83 70 66 61 63 69 70 72 72 69 67 68 68 67 74 72 72 65 57 48 38 33
24 26 28 32 41 44 49 53 56 61 52 53 50 47 56 65 79 83 79 75 72 70 75 77 74 79 80 78 77 68 75 74 78 79 79 75 71 69 70 69 73 75 69 65 55 49 43 31 31
22 29 39 38 40 45 48 53 54 60 50 46 49 46 53 54 62 64 66 70 70 71 73 74 79 80 77 75 75 83 87 77 84 82 85 77 75 74 73 71 76 68 65 54 50 45 40 36 32
23 36 36 37 39 48 51 51 48 57 49 40 46 44 44 45 53 56 56 57 62 66 73 88 84 81 88 83 82 93 84 78 87 86 86 80 78 78 73 72 70 64 55 50 48 45 44 40 36
30 35 36 38 43 50 52 46 49 49 51 50 42 40 44 45 41 44 46 46 48 55 63 83 89 90 94 87 88 89 84 78 86 89 86 79 75 75 74 65 62 70 55 51 46 45 45 46 44
28 34 35 36 40 51 50 45 42 47 53 58 49 47 36 38 38 41 41 42 43 47 56 64 81 87 85 83 84 85 81 79 90 89 79 74 72 66 63 58 72 71 54 50 54 54 53 53 54
32 34 34 37 40 50 53 50 48 46 49 55 51 40 40 34 37 32 36 37 40 41 47 57 64 64 66 64 68 73 75 74 79 73 69 63 64 66 65 66 65 60 60 60 62 61 62 66 71
34 33 33 36 36 41 45 48 49 45 51 55 54 38 41 36 29 31 31 34 37 41 42 45 47 47 47 53 55 59 64 67 64 64 67 67 64 65 68 72 65 63 67 70 80 81 81 79 78
39 33 35 31 35 41 42 45 45 45 48 52 57 52 43 38 34 34 29 30 33 34 36 37 38 37 39 45 46 48 48 48 46 50 53 58 63 69 74 74 70 64 77 85 85 82 80 81 79
37 38 35 30 34 37 35 45 41 47 53 54 54 56 48 41 41 39 34 31 30 31 34 35 36 36 39 43 49 50 51 53 53 56 57 61 65 64 64 67 74 82 87 88 84 86 87 88 84
38 39 32 37 40 45 39 42 39 53 48 48 51 51 51 46 46 43 41 38 35 36 35 33 37 41 42 46 50 53 56 58 58 56 56 57 66 70 71 75 83 89 89 88 89 90 92 85 84
43 45 45 50 54 51 46 45 38 39 41 43 46 43 43 43 46 46 44 43 40 38 38 40 39 42 46 50 52 54 59 61 60 59 55 54 62 83 87 87 93 94 89 90 91 92 93 84 78
45 44 48 55 60 49 48 43 34 40 41 44 45 41 38 40 41 46 49 48 45 44 40 41 41 40 43 46 49 54 57 60 63 65 66 60 60 64 77 85 86 90 85 87 88 87 75 74 69
47 46 36 58 60 63 50 43 37 39 43 42 38 41 41 41 38 40 44 49 53 58 50 42 44 42 41 47 52 56 62 62 67 67 71 71 58 62 66 62 70 77 78 78 77 77 72 68 71
47 44 47 59 64 60 51 52 56 47 41 37 37 43 41 41 36 35 41 44 49 56 64 62 60 54 51 51 53 55 59 66 67 75 68 68 72 62 60 58 61 71 79 81 85 77 67 68 66
50 47 46 54 61 64 57 50 49 49 46 44 45 40 42 39 34 32 35 40 42 50 56 59 70 68 68 67 68 63 66 70 72 80 84 80 85 75 75 69 63 71 74 79 77 67 65 63 65
50 48 46 56 60 57 64 50 51 45 46 46 43 45 42 38 35 33 31 34 37 40 45 45 51 59 60 63 66 71 70 76 81 78 91 95 95 80 82 77 71 72 72 69 64 66 66 65 64

GFSSGP_prec_cthk_051.txt.gz
RH
13 13 14 14 23 31 34 30 30 38 42 43 43 46 51 54 58 67 62 63 67 72 65 65 69 72 67 63 66 69 70 46 38 40 41 39 32 29 30 29 27 26 25 25 25 24 25 25 24
13 12 15 22 30 33 32 30 30 42 46 45 46 47 47 49 56 59 59 60 68 72 72 69 66 67 72 68 68 68 71 41 41 42 40 39 36 31 30 29 28 28 29 29 32 31 30 30 27
14 18 22 28 33 32 32 29 29 43 47 47 48 50 46 48 50 56 60 58 63 70 71 72 72 73 73 71 74 78 62 38 49 48 44 42 40 35 32 30 29 30 35 38 38 38 37 35 32
16 19 26 32 33 31 30 28 37 41 42 41 43 43 43 45 47 49 53 58 67 65 66 68 73 75 73 76 80 75 69 44 50 49 46 43 42 38 35 35 34 38 37 39 39 39 39 39 38
19 21 28 31 31 29 30 31 38 49 49 48 48 46 50 47 47 51 53 58 62 63 69 66 70 79 83 85 90 92 69 43 52 55 51 47 43 40 39 40 38 41 41 41 38 40 41 42 39
16 22 32 34 30 29 30 35 43 51 51 50 51 49 47 54 54 59 60 62 67 73 81 76 73 78 88 89 90 92 55 46 56 59 53 49 44 43 44 43 42 45 46 45 41 42 39 41 37
19 23 32 32 32 32 36 40 44 45 46 46 45 49 50 58 61 66 65 67 80 84 85 89 87 93 94 99 98 93 59 51 59 62 53 49 47 50 47 45 43 44 48 46 43 40 41 39 37
17 22 34 31 31 31 36 40 41 41 41 42 45 54 57 65 63 70 76 86 92 89 90 91 89 98 97 95 97 92 61 54 63 60 52 51 50 53 52 50 47 43 45 47 49 47 39 35 34
18 25 34 30 28 29 38 42 41 38 41 41 51 54 60 63 64 71 75 85 91 91 89 94 99 94 98 98 93 90 71 60 65 59 54 53 54 58 58 55 53 50 46 44 55 53 41 36 32
21 27 30 28 27 28 35 38 38 36 39 53 53 49 45 46 56 62 69 77 84 86 91 96 88 87 82 89 93 87 80 71 63 61 55 56 60 60 60 55 54 52 48 50 55 51 47 38 33
23 26 27 26 26 26 39 47 50 54 56 55 58 53 41 41 46 51 65 67 70 76 85 89 83 84 86 85 89 87 86 85 79 70 63 59 55 61 63 61 56 54 58 56 53 51 48 37 33
22 22 26 25 24 33 43 49 53 56 54 50 49 47 37 36 50 51 57 63 72 71 79 81 81 82 85 89 89 93 91 91 89 79 64 59 58 65 66 59 63 61 61 63 57 55 48 39 31
25 24 26 26 30 38 43 49 53 52 47 49 40 39 46 50 64 66 53 59 65 66 76 89 85 85 81 86 85 86 88 80 81 75 63 59 61 66 64 64 65 64 65 63 57 51 48 40 34
27 24 25 28 34 40 43 48 51 52 47 45 42 40 55 55 64 68 65 60 64 71 88 83 82 81 78 85 85 80 72 66 64 67 64 62 64 65 65 67 66 67 65 66 63 58 50 49 45
26 23 25 30 34 42 45 46 47 47 48 45 42 42 54 52 55 67 68 63 71 78 73 77 77 79 79 82 85 76 65 62 61 64 66 67 68 66 66 66 68 70 71 69 67 62 59 51 43
25 27 30 34 39 40 46 43 42 51 51 44 41 41 47 47 47 55 62 68 67 72 73 72 83 84 80 78 78 89 77 64 65 68 71 73 73 71 69 67 68 72 74 71 68 60 52 44 38
25 28 33 35 38 44 49 46 43 52 53 53 45 37 39 39 42 46 49 58 64 66 69 81 90 82 86 79 89 81 74 71 74 71 79 80 78 76 72 76 74 75 74 66 55 51 48 46 41
27 33 33 34 37 46 50 48 45 46 51 54 45 39 33 32 33 38 41 45 53 59 67 79 94 89 97 84 82 85 86 85 83 81 87 84 83 80 79 77 76 73 66 55 49 46 46 45 45
26 32 38 35 37 38 43 48 44 43 49 54 52 37 28 25 29 34 38 41 44 51 64 83 92 98 96 91 91 89 88 92 93 89 90 88 87 84 81 76 71 69 57 57 48 48 47 49 51
28 34 36 34 36 46 46 46 44 45 46 49 52 41 35 23 25 27 30 36 39 46 54 65 85 90 87 89 94 95 95 97 95 90 88 90 87 81 78 72 68 72 68 57 55 57 56 58 63
30 33 37 37 36 42 42 43 42 44 46 51 50 46 35 32 21 24 26 32 37 35 37 49 58 63 68 75 84 87 95 96 89 81 80 79 78 73 67 67 69 72 62 60 61 64 67 73 76
37 35 39 37 37 41 40 45 37 40 45 49 47 48 41 32 28 25 22 28 31 32 34 37 43 49 53 59 65 70 76 74 72 68 71 76 73 68 69 71 70 70 67 66 74 80 84 85 84
40 43 43 42 38 39 40 44 35 40 44 47 48 52 50 35 34 31 27 24 25 27 30 32 34 38 43 47 51 56 57 58 61 60 64 65 67 66 68 68 72 74 71 72 75 85 89 91 93
42 46 46 43 41 45 38 44 42 36 35 41 44 46 50 43 39 36 33 32 30 31 31 30 31 32 34 40 48 50 51 54 56 61 67 70 68 67 67 65 74 73 73 75 82 93 94 91 91
46 47 53 50 49 48 40 52 42 33 29 33 39 41 43 43 40 40 38 39 36 32 33 35 36 35 35 39 45 49 52 54 56 58 58 58 62 67 72 70 69 71 75 85 93 95 94 92 93
47 47 57 56 58 42 48 51 37 32 30 29 34 37 41 44 44 43 41 42 43 41 37 38 38 38 39 41 44 45 51 54 57 65 58 53 50 52 61 75 82 83 92 93 89 90 91 92 86
47 51 46 59 67 61 45 41 31 31 31 31 34 37 35 38 40 40 43 47 48 51 56 46 39 40 42 45 47 50 52 53 58 58 61 63 60 51 58 67 79 92 88 89 88 83 78 80 82
46 50 56 61 67 63 48 46 38 33 42 38 35 36 35 36 39 38 38 42 48 53 59 65 57 51 50 48 47 50 55 52 56 59 62 62 71 69 71 66 70 71 76 76 74 75 77 81 78
48 52 54 56 61 55 53 44 35 40 42 42 40 37 36 37 36 34 31 32 38 47 58 61 63 66 71 64 62 62 60 62 59 58 65 71 77 84 89 85 76 75 72 71 80 78 79 77 71
48 54 55 61 61 62 58 42 37 42 43 45 44 42 39 33 37 34 32 33 32 32 39 52 55 58 61 62 67 70 66 69 69 69 75 84 86 88 88 96 90 89 87 78 79 78 72 69 66

GFSSGP_prec_cthk_054.txt.gz
RH
14 13 14 16 20 27 30 27 26 29 38 41 46 47 49 53 49 49 55 62 67 70 64 68 71 68 68 67 61 58 60 63 64 56 52 47 41 40 38 31 29 27 26 31 28 24 23 20 19
15 15 15 18 25 28 27 25 25 30 39 43 45 48 47 45 52 54 52 55 65 71 70 70 72 72 72 67 62 58 58 55 65 43 46 42 40 38 31 29 29 31 34 35 33 29 27 23 22
16 20 20 24 28 28 28 24 25 29 37 41 41 45 46 43 44 48 50 53 65 72 71 70 77 82 72 65 63 61 60 61 61 48 42 42 38 36 32 32 32 31 33 33 36 33 31 31 28
18 21 23 28 29 27 25 26 28 36 37 39 43 44 44 44 43 44 46 51 60 68 70 71 71 82 72 68 69 67 60 62 62 46 44 40 39 38 37 36 35 33 35 40 38 36 34 34 32
21 21 26 28 29 27 27 27 31 39 40 42 43 44 48 46 45 47 48 53 60 71 79 79 72 70 74 72 75 69 66 54 49 45 45 44 43 41 40 40 39 38 41 42 41 39 37 38 35
21 23 29 29 28 28 28 30 36 37 36 38 40 41 41 46 47 55 59 57 60 68 76 90 81 78 81 76 79 74 72 56 56 57 45 43 45 42 44 43 42 42 43 44 45 43 39 39 37
22 24 27 27 28 26 29 35 34 35 37 39 40 50 51 56 61 61 63 62 63 70 81 85 94 91 92 87 91 85 82 68 62 62 51 46 46 45 50 47 46 42 46 48 46 43 39 40 37
22 23 26 27 26 25 27 34 35 36 37 40 44 57 58 63 69 69 70 72 81 87 93 97 95 90 95 97 98 97 83 74 66 62 52 47 49 52 53 53 51 47 49 46 44 41 41 41 36
22 23 27 26 25 23 27 31 40 44 48 55 60 57 56 53 55 62 73 76 82 84 83 92 98 96 98 96 95 98 92 82 72 64 57 54 53 56 57 58 56 54 50 49 47 45 46 45 37
24 24 26 24 25 24 27 37 43 47 52 59 59 59 59 54 52 56 61 73 80 90 89 94 88 83 87 85 96 96 91 86 78 66 56 56 59 61 59 59 57 55 53 52 51 51 51 41 38
26 24 25 25 25 24 28 39 45 47 53 55 53 48 50 49 48 51 55 59 81 90 93 94 82 79 88 90 88 89 86 86 83 68 64 61 62 64 69 62 57 52 51 53 55 56 51 43 36
26 24 23 25 25 27 32 40 44 46 47 49 49 43 46 51 56 66 69 64 71 77 81 87 84 76 86 89 90 87 87 90 92 78 73 66 68 75 68 60 59 60 56 57 58 61 54 45 37
26 24 25 25 24 28 36 38 43 48 46 48 49 42 55 60 59 71 75 73 63 69 77 74 79 78 85 88 89 89 91 94 91 84 82 73 78 72 64 64 68 63 63 63 60 59 52 47 42
28 27 26 25 25 30 36 40 46 43 43 48 47 41 55 58 56 66 74 67 65 70 69 74 90 85 86 90 88 86 88 90 92 91 88 77 76 72 70 68 67 67 70 69 62 58 52 48 42
30 27 26 23 27 32 37 43 47 42 44 47 45 43 51 54 51 60 66 63 57 63 72 83 84 87 84 84 91 85 90 88 91 88 89 76 75 74 72 70 67 70 73 72 68 61 52 49 45
33 28 26 25 31 32 36 39 39 41 46 50 54 44 43 48 46 54 61 65 62 68 73 76 87 96 77 86 91 90 88 86 90 85 84 73 75 77 74 72 69 74 73 75 74 68 63 53 49
37 32 30 32 34 36 41 40 40 46 52 53 53 47 45 42 40 44 48 53 60 64 69 73 74 75 85 92 85 95 90 77 79 81 77 75 79 79 75 72 74 75 75 76 77 71 63 55 52
40 32 32 35 35 35 37 41 40 41 48 51 53 48 39 38 35 37 40 43 49 55 63 73 77 81 98 85 83 94 92 90 74 74 74 77 80 78 77 76 79 76 77 76 74 65 58 56 52
36 34 29 31 33 34 32 36 37 40 46 50 52 48 37 32 35 34 38 40 41 44 56 75 87 89 99 95 97 93 91 80 77 76 77 79 82 81 82 85 83 80 78 76 66 58 54 51 49
41 38 34 30 34 38 35 35 36 39 42 45 49 46 40 37 29 31 30 33 36 41 48 75 88 94 97 97 97 93 87 81 85 90 88 89 84 87 88 83 83 80 78 71 60 56 51 49 51
42 39 32 32 39 40 38 32 33 33 41 41 45 41 40 37 31 26 26 29 31 34 40 54 77 86 88 93 94 93 93 90 86 98 93 90 88 90 88 90 88 79 75 63 60 54 52 55 63
44 39 31 36 43 46 40 44 32 30 35 39 42 42 40 36 32 26 25 27 29 30 32 41 51 59 64 77 76 84 95 88 88 98 96 90 88 91 91 86 76 68 70 70 61 59 59 63 77
43 38 35 43 48 47 43 40 29 32 33 35 37 42 44 36 33 32 26 22 24 25 27 31 38 43 50 59 61 70 84 91 87 88 88 81 79 78 80 71 67 72 72 67 62 66 73 80 89
44 47 49 50 52 57 45 41 32 28 29 30 34 40 42 39 33 34 30 30 28 26 26 27 34 41 46 49 50 54 64 66 71 74 74 73 70 71 72 71 76 78 76 69 73 77 80 86 92
45 51 60 59 66 62 45 48 33 27 27 29 33 36 38 39 35 36 34 31 30 28 28 31 36 37 40 45 49 51 54 56 57 64 65 64 62 64 70 70 70 70 71 71 78 74 79 87 95
49 51 62 65 68 53 53 55 38 28 28 28 32 35 38 37 35 36 37 36 35 32 31 31 32 38 39 41 45 50 56 57 58 59 60 57 59 61 64 68 71 72 72 72 75 79 87 95 92
51 53 49 64 69 71 57 49 38 25 24 27 27 31 37 37 37 33 37 38 39 39 40 43 36 35 38 42 45 47 48 51 53 54 55 58 52 50 53 58 65 73 75 80 82 90 93 93 90
49 49 58 64 70 71 60 56 44 30 26 31 31 32 36 36 35 36 36 36 39 42 47 50 57 42 38 39 43 47 48 50 54 51 51 54 56 61 60 54 51 59 66 83 93 96 94 91 86
50 51 53 57 65 64 62 53 42 33 36 32 40 36 37 38 38 39 35 31 32 39 42 50 55 58 58 56 53 49 52 54 56 61 64 58 59 61 71 74 69 69 73 79 79 86 88 85 84
49 53 55 63 61 67 65 53 42 39 41 43 35 40 38 35 38 39 38 34 31 32 33 35 40 48 56 61 62 63 67 68 67 64 68 68 65 69 76 81 87 92 90 88 85 84 83 86 90

GFSSGP_prec_cthk_057.txt.gz
RH
14 14 15 18 19 21 22 21 23 24 32 38 41 43 42 45 44 43 45 45 48 55 61 59 61 67 72 70 71 69 70 69 64 71 60 61 57 46 37 33 31 33 28 27 28 27 25 21 20
15 15 17 20 21 22 20 21 22 25 32 38 41 41 44 42 47 50 50 53 54 59 63 64 66 64 69 67 67 65 68 63 61 58 61 55 49 42 37 33 33 30 27 27 28 24 23 23 23
17 19 20 23 23 21 20 21 22 24 31 35 39 41 42 41 44 51 51 51 63 66 68 69 65 66 67 67 65 65 62 62 60 64 64 46 42 42 39 31 32 32 33 37 31 27 25 26 26
19 20 24 26 24 22 20 22 24 28 30 33 40 41 40 38 43 46 50 54 63 70 73 68 65 66 66 64 65 58 58 58 56 64 64 46 40 40 33 34 37 39 42 38 35 35 29 28 27
21 22 24 25 25 22 22 23 26 28 33 35 37 37 39 39 43 47 52 59 68 74 72 68 69 72 70 69 65 58 56 55 53 55 54 47 39 39 40 41 41 41 43 41 41 38 33 30 31
24 25 25 26 24 24 23 24 26 31 35 36 36 36 36 41 48 50 54 62 68 76 83 84 76 79 76 74 67 59 60 56 52 50 57 50 38 42 39 42 40 42 46 48 46 43 38 38 37
23 24 24 27 25 24 23 28 30 32 34 38 42 44 47 51 57 63 65 69 68 78 89 91 97 93 93 85 80 77 68 64 56 51 50 45 41 46 45 43 44 47 51 51 50 47 44 41 40
24 25 25 27 24 21 22 27 29 34 38 43 52 55 56 52 50 53 65 68 74 80 82 89 97 98 92 95 95 91 87 75 66 56 56 50 41 47 47 48 50 52 52 53 51 47 44 42 39
26 26 23 24 22 20 24 28 35 42 43 47 54 57 51 53 55 50 55 63 72 80 86 84 96 99 92 96 93 94 98 92 70 61 65 60 44 48 54 50 52 52 53 51 49 46 46 40 44
27 26 21 22 20 21 24 31 38 43 43 48 54 55 49 45 47 45 46 56 60 74 87 92 94 88 96 95 95 97 95 94 80 73 70 58 50 53 56 53 53 53 54 53 51 49 49 43 45
28 25 21 23 21 22 26 32 38 41 40 42 49 49 46 46 53 56 57 60 61 60 83 91 84 84 87 94 91 98 98 98 93 80 65 61 60 58 57 57 56 57 59 57 52 54 51 49 42
29 27 25 24 22 25 28 34 40 40 39 43 47 47 45 52 52 52 65 76 76 68 78 84 83 78 84 91 90 94 98 96 93 76 66 62 63 58 60 57 61 58 57 55 59 55 53 54 43
29 26 25 24 24 24 30 32 40 43 40 44 45 45 47 54 50 56 67 76 86 80 71 75 75 76 81 90 94 96 97 97 94 78 66 65 64 61 60 60 59 59 61 62 60 59 63 54 46
29 28 28 25 24 23 30 34 43 42 38 44 45 44 44 51 49 55 66 72 76 70 69 69 68 82 82 94 89 94 98 99 92 80 69 70 73 68 66 65 59 61 65 66 63 63 58 57 49
33 31 31 26 25 25 31 36 40 40 41 46 51 49 44 45 46 50 62 64 65 68 64 62 70 84 89 91 95 90 95 96 93 89 78 80 85 77 72 67 64 67 68 69 68 61 60 56 50
36 35 33 28 27 28 31 33 34 41 44 47 52 52 47 42 41 44 54 61 60 57 64 64 81 81 98 90 93 91 92 94 93 94 85 83 80 79 76 72 72 75 74 73 67 64 60 55 53
39 37 35 27 30 31 35 32 36 41 44 45 49 52 45 42 36 37 43 51 58 63 65 70 76 76 83 83 92 92 92 95 95 91 85 84 80 80 79 77 75 78 80 79 76 74 73 61 52
40 41 35 29 34 35 34 28 31 37 42 43 48 52 48 40 33 32 38 42 49 53 57 64 76 75 81 84 90 93 91 91 93 92 89 83 80 83 80 79 75 78 82 83 80 79 78 71 58
40 37 34 30 35 31 30 31 30 35 43 43 46 50 50 42 30 30 33 36 39 43 49 60 77 80 81 80 91 86 93 90 90 87 86 83 82 84 85 80 77 77 83 81 80 81 81 71 64
41 41 38 33 34 34 31 32 30 30 37 39 42 47 48 43 38 27 27 32 35 37 40 64 86 89 82 85 88 89 87 93 94 87 81 84 83 84 87 78 80 81 81 81 81 78 75 64 57
44 44 44 38 34 37 36 35 30 30 33 35 38 44 45 40 37 29 26 27 33 34 38 57 78 81 90 95 99 97 93 93 91 90 88 89 86 87 84 82 85 85 86 85 84 80 70 67 59
45 48 42 39 35 35 38 39 36 29 27 30 32 39 44 44 34 30 26 25 29 29 31 40 57 73 80 91 96 95 92 90 88 93 90 85 88 90 87 87 83 90 92 91 85 76 69 65 59
43 49 47 41 37 41 40 39 34 31 25 26 27 35 39 42 34 31 27 26 26 27 28 32 39 48 59 70 78 81 85 92 95 92 84 89 90 92 91 88 89 94 91 91 80 74 70 63 60
45 48 46 47 47 48 41 40 35 31 24 23 25 32 38 39 39 31 31 29 29 27 27 29 32 38 43 51 60 64 71 86 95 89 86 90 88 88 88 89 91 91 90 81 77 75 70 65 73
47 47 50 54 57 48 49 48 36 30 24 24 25 31 36 39 41 31 32 30 29 27 27 29 35 37 39 42 49 51 60 68 78 80 78 82 81 76 78 80 83 82 76 73 79 77 67 64 69
49 48 53 62 60 51 56 52 37 33 28 28 27 30 34 37 38 35 32 33 33 30 27 27 30 36 37 38 42 47 53 56 62 69 66 70 74 73 74 75 76 74 76 77 79 76 71 66 70
57 55 49 58 69 64 53 48 39 36 32 25 26 26 32 36 39 39 39 36 36 34 33 32 32 33 35 37 40 43 47 51 53 58 64 63 66 66 67 65 68 70 69 72 70 71 68 70 72
53 53 58 60 60 62 57 55 43 39 37 26 27 25 29 35 40 39 39 39 38 39 40 40 43 44 39 39 38 41 44 47 50 54 54 55 61 65 62 58 58 59 62 68 75 78 76 74 80
57 55 55 54 58 58 58 52 45 43 36 31 30 34 32 31 37 40 41 42 42 41 41 43 46 54 51 42 41 44 50 50 51 55 61 66 68 64 61 60 63 63 61 59 55 57 70 79 90
56 56 54 61 63 67 64 53 45 44 43 39 37 35 39 37 40 43 44 40 37 33 34 36 39 40 48 55 52 50 50 53 49 54 57 62 64 70 68 66 68 70 71 75 78 75 67 78 95

GFSSGP_prec_cthk_060.txt.gz
RH
13 15 16 18 20 20 21 20 17 19 24 28 32 33 35 36 37 43 43 39 44 52 55 49 53 58 60 59 63 69 73 73 78 75 72 66 52 53 42 31 28 32 32 31 30 22 22 21 23
15 16 19 20 19 21 23 18 18 19 21 28 32 33 35 37 36 40 41 43 45 54 58 58 56 58 57 65 67 68 71 70 72 69 72 71 59 46 38 36 30 32 28 30 28 23 20 21 25
16 20 22 22 20 21 21 18 18 19 23 27 30 32 36 38 35 38 40 42 45 51 61 67 64 63 67 68 68 69 69 68 68 70 66 68 60 43 40 36 32 29 25 26 26 24 24 24 24
18 21 23 23 24 23 18 18 20 22 27 27 32 34 36 37 40 41 38 40 44 53 63 69 70 70 76 74 75 75 70 67 70 64 62 66 59 45 41 35 32 28 28 25 26 27 28 29 27
20 21 23 23 25 22 18 19 21 22 28 30 32 34 33 38 37 39 41 43 47 56 67 81 77 82 86 76 72 73 70 68 66 65 65 69 58 46 41 35 31 36 30 30 30 31 31 30 28
22 22 22 23 24 22 20 22 22 24 30 35 37 38 38 39 42 47 50 50 48 55 78 84 88 91 79 82 74 72 74 69 66 65 63 65 65 44 39 40 42 40 35 35 37 37 35 32 31
22 21 21 23 24 22 22 25 25 28 29 37 39 38 43 46 48 51 51 55 59 62 67 79 87 97 85 87 87 89 83 67 65 64 60 60 58 46 39 42 42 41 41 42 44 43 41 37 35
23 22 24 22 25 22 20 22 24 27 35 40 44 44 47 50 47 47 45 46 59 65 77 81 85 90 88 99 97 94 89 75 69 64 61 56 64 47 41 41 46 45 46 48 48 46 42 39 34
22 24 24 21 23 22 20 22 26 31 37 44 48 45 47 44 40 44 47 45 51 60 72 84 85 88 96 91 94 98 92 78 77 68 70 60 64 51 43 47 52 52 53 50 48 47 42 41 35
23 26 25 20 22 20 20 21 26 32 37 43 45 45 44 43 43 47 48 50 53 57 69 90 90 90 95 96 94 98 98 98 85 73 69 65 61 53 55 51 56 56 57 51 49 45 41 41 38
24 27 25 23 22 21 21 22 26 32 37 37 39 41 41 43 45 47 49 50 57 68 67 83 92 82 87 91 96 98 98 96 92 88 75 76 66 58 60 53 60 57 58 52 48 46 47 45 47
26 28 26 23 23 23 22 24 28 32 34 39 40 39 40 41 45 47 46 55 65 72 73 83 90 81 83 90 91 93 94 97 98 94 87 80 72 60 59 56 64 62 59 58 59 54 51 51 50
27 30 29 26 25 24 24 25 27 31 36 40 38 39 39 38 40 43 47 56 72 82 78 76 85 87 79 85 93 95 98 98 97 95 89 83 78 69 65 61 65 65 64 59 57 56 56 60 57
27 30 29 28 26 25 25 23 29 33 35 42 38 42 40 39 39 41 49 56 72 78 75 73 78 79 78 84 92 97 99 99 99 97 86 85 71 70 69 62 65 64 62 63 58 59 64 63 58
28 32 32 30 27 27 26 23 31 32 40 45 44 46 43 40 37 39 46 54 60 66 69 70 69 69 82 87 94 95 99 99 98 95 83 77 73 74 69 67 67 64 61 63 64 63 65 63 57
30 32 34 33 30 28 28 24 31 32 39 41 45 45 45 38 34 33 41 50 52 52 55 59 64 75 79 89 92 95 98 98 97 94 79 77 77 75 70 65 68 66 66 65 66 67 65 62 56
33 31 34 35 33 32 33 26 33 34 35 38 44 44 47 41 34 29 35 39 46 48 54 58 65 72 80 86 91 93 97 98 97 93 84 84 83 82 79 72 71 70 67 69 68 65 63 61 57
34 36 35 35 33 33 34 28 31 31 35 37 39 45 47 46 35 27 31 35 38 40 43 51 60 71 79 84 82 95 94 98 95 93 88 86 85 84 84 82 78 76 77 74 71 69 68 66 63
36 36 36 33 34 32 33 30 27 29 30 36 39 40 44 46 40 27 25 30 33 33 37 44 57 69 75 79 79 86 93 95 95 92 97 91 89 89 91 89 80 78 80 80 78 79 79 76 72
39 38 37 37 39 32 30 30 28 31 29 33 40 40 42 45 40 32 25 26 31 33 34 42 66 82 89 81 82 83 90 94 96 95 94 94 90 89 89 88 83 78 83 82 82 82 84 82 79
42 40 41 42 40 34 32 30 31 31 29 31 38 37 39 43 41 32 25 24 29 32 29 43 67 83 89 79 80 93 92 88 95 95 91 89 87 88 89 90 88 80 82 84 82 82 85 89 86
44 43 44 47 44 35 34 33 33 34 32 28 32 35 37 41 40 35 28 23 26 29 29 35 53 70 80 85 79 86 89 89 89 94 93 89 86 87 90 91 92 81 81 84 84 88 88 89 89
46 45 46 51 44 39 33 34 30 31 30 28 25 32 34 37 39 36 30 26 24 27 28 30 37 51 59 68 76 83 98 93 94 91 93 94 86 84 86 90 92 82 87 88 90 88 88 86 82
48 49 49 49 49 46 39 37 30 31 31 24 24 28 30 35 39 39 31 29 26 27 28 31 35 38 42 48 57 65 76 80 88 91 94 90 89 88 88 89 92 85 87 84 84 86 87 85 78
49 47 52 51 54 46 42 40 35 35 33 25 24 27 31 34 38 42 31 31 27 27 28 29 33 39 40 42 46 52 60 64 75 88 92 88 90 91 85 82 87 88 86 85 89 95 94 86 76
48 47 46 55 53 45 51 45 38 38 33 30 25 26 29 34 36 39 37 33 31 30 29 26 27 35 40 42 44 48 52 55 61 72 81 82 78 74 73 74 79 81 82 86 87 87 86 79 73
51 52 49 51 58 55 53 48 38 38 37 34 26 25 27 32 37 39 39 38 40 36 30 27 28 33 39 41 43 45 49 49 51 57 59 64 66 63 65 65 70 74 75 77 77 77 72 76 79
56 56 58 57 60 62 50 52 43 38 41 40 35 28 27 28 36 41 41 39 42 43 39 33 34 39 40 45 46 44 46 48 50 51 51 53 56 56 55 59 64 68 69 69 71 70 74 78 77
64 60 57 57 56 56 55 52 45 42 46 44 39 35 34 34 40 41 42 43 40 46 45 41 39 42 45 47 44 47 49 53 57 58 55 56 59 58 55 56 60 61 62 64 66 63 66 68 71
56 58 58 61 62 59 59 53 46 45 44 44 41 37 42 41 39 43 43 45 45 47 45 44 42 43 45 50 45 43 47 50 52 58 58 61 60 63 65 69 71 69 68 68 71 72 75 78 78

GFSSGP_prec_cthk_063.txt.gz
RH
12 13 18 22 24 22 23 27 20 19 22 30 27 25 36 34 34 46 61 43 35 39 46 47 42 47 54 58 62 66 66 71 73 74 71 71 65 60 49 36 30 34 34 33 31 29 27 25 24
16 18 21 26 20 22 22 28 23 22 20 23 22 26 29 39 40 37 37 34 35 40 45 53 50 54 61 59 64 65 73 76 77 76 76 72 72 68 60 47 35 32 31 30 30 29 25 25 26
15 17 23 25 23 21 23 27 22 22 20 23 27 32 32 37 34 33 33 34 35 40 50 56 57 61 67 71 67 66 69 75 78 74 75 78 78 68 52 39 36 31 29 28 31 26 26 26 27
16 18 22 23 22 26 24 23 22 20 26 28 29 30 45 36 33 33 33 35 38 42 51 58 64 68 71 85 76 81 73 76 75 76 73 77 73 62 48 42 35 31 27 32 25 25 25 26 27
17 21 25 26 25 25 25 20 19 21 25 27 33 32 43 42 35 34 34 39 44 45 53 63 67 73 72 79 83 89 81 78 77 75 71 71 69 70 49 44 35 31 28 28 27 26 27 28 29
19 21 24 23 24 27 25 22 20 21 27 38 40 41 40 38 37 38 38 44 52 55 53 61 77 78 83 89 90 90 92 74 71 71 70 68 69 71 52 43 34 31 30 30 28 29 30 30 30
20 24 23 22 24 27 27 26 22 25 33 34 43 39 44 44 40 40 45 45 45 53 54 57 66 78 79 90 98 94 93 76 75 70 69 69 68 69 50 44 35 32 32 33 32 33 34 32 32
20 22 23 23 24 26 28 25 22 23 29 34 33 40 47 56 44 41 41 42 42 43 53 58 66 77 82 84 89 98 98 90 79 75 70 65 64 78 48 55 41 37 38 37 36 38 37 35 34
21 22 23 24 26 27 27 22 23 27 25 32 39 42 44 43 42 39 44 41 40 46 49 53 57 75 85 83 89 91 92 98 81 71 70 71 63 64 56 60 47 43 45 42 42 42 40 36 35
20 21 23 26 25 27 27 24 22 27 31 34 40 42 41 40 40 43 45 50 45 44 54 60 61 81 80 79 84 84 85 95 92 82 75 73 67 66 65 62 51 51 52 48 46 44 40 38 37
19 21 26 27 26 25 24 24 24 24 28 36 39 39 41 40 37 42 41 48 54 52 57 63 67 78 78 80 90 85 97 99 94 89 78 75 65 69 62 63 64 57 57 54 48 44 42 43 40
19 21 26 28 28 25 22 24 25 25 30 33 34 37 36 36 36 36 44 50 51 65 69 77 72 81 82 84 88 92 89 97 96 89 89 87 74 80 68 69 71 62 61 56 50 47 52 48 47
20 22 27 29 28 26 24 23 26 25 29 32 35 36 35 38 36 34 40 47 58 70 73 75 81 80 80 80 91 97 93 98 97 96 92 92 87 84 68 67 78 66 63 57 55 61 57 55 55
23 24 28 30 29 27 26 24 26 26 30 33 35 37 38 42 36 33 38 46 55 71 73 70 69 77 78 78 83 89 93 97 97 97 93 96 89 80 77 74 82 68 63 63 64 70 60 59 64
25 25 28 30 30 28 29 27 25 23 29 32 37 39 42 43 37 31 33 44 48 58 63 61 65 71 70 67 77 87 93 96 99 97 97 96 90 82 82 85 74 71 71 70 72 66 65 65 66
26 25 29 31 33 32 31 28 27 29 35 33 38 40 42 42 40 31 29 35 43 50 53 55 57 61 62 68 80 86 91 94 98 98 98 95 89 90 84 83 83 77 74 75 73 67 68 72 66
32 28 30 33 34 35 34 33 29 35 33 32 38 40 43 43 45 35 26 29 39 38 45 49 53 58 67 69 80 87 90 95 98 98 96 91 89 89 88 84 82 75 71 74 76 73 75 75 69
34 34 32 33 37 35 35 40 33 38 33 31 35 39 41 42 43 40 28 26 35 36 34 40 45 51 59 71 77 85 89 96 99 98 94 91 90 93 88 82 81 75 72 75 73 75 76 74 69
39 40 38 37 36 35 35 36 38 33 36 34 36 36 39 42 43 41 31 25 26 32 32 33 39 50 63 73 74 82 91 96 96 92 91 91 92 93 88 84 77 76 78 77 76 77 74 71 69
43 39 38 38 36 35 36 31 33 32 30 35 38 40 40 39 44 41 34 29 28 32 31 31 38 60 75 83 81 80 81 92 97 93 95 90 88 88 87 85 82 86 84 84 82 82 79 78 75
49 45 42 41 40 38 39 33 29 31 30 34 30 29 38 40 42 42 36 30 26 31 30 29 34 59 75 92 84 83 84 86 95 94 92 89 91 95 87 86 87 85 89 89 88 86 85 85 81
52 47 43 44 42 41 41 33 31 30 32 34 33 28 31 36 38 42 38 31 26 25 27 30 33 52 73 82 87 78 78 85 90 87 94 92 92 89 87 83 87 90 87 90 92 87 83 85 85
55 52 48 47 43 45 46 37 32 31 35 33 32 30 33 33 34 38 40 31 28 27 26 27 35 43 55 73 72 76 82 86 90 91 93 95 90 92 92 89 92 92 89 89 88 87 85 84 88
55 54 53 52 46 50 49 44 35 36 33 37 31 29 29 34 32 35 42 32 27 27 27 28 31 40 42 48 57 63 72 81 89 93 93 94 93 91 93 97 92 91 90 89 84 89 88 85 84
51 54 57 57 53 46 45 45 40 39 35 35 34 28 31 32 32 34 42 36 27 26 26 26 29 34 40 43 45 51 58 65 70 78 86 93 93 93 93 94 90 89 92 92 92 87 87 85 83
54 54 54 58 55 45 42 44 42 43 40 36 30 30 31 35 30 33 40 41 31 25 25 26 27 30 36 40 43 46 51 56 62 70 78 88 90 90 89 86 84 83 87 91 95 91 84 82 80
54 53 53 53 64 57 49 46 42 44 40 38 36 39 36 31 32 33 41 40 36 30 27 27 27 28 31 38 42 43 47 50 52 57 66 75 78 80 76 71 71 75 77 77 80 82 80 79 80
61 57 55 56 62 64 53 57 46 42 43 45 41 45 39 32 34 34 41 41 41 38 34 31 31 30 33 39 44 45 45 47 50 53 55 60 64 69 67 64 64 68 70 70 69 69 71 74 77
65 61 62 55 55 59 59 51 48 46 51 50 52 48 44 33 32 33 39 46 45 44 40 38 35 33 35 37 41 45 45 47 51 57 58 56 57 56 58 55 57 56 55 58 58 59 64 67 70
62 63 62 65 74 58 61 56 54 51 51 49 47 49 50 41 37 41 42 47 47 47 45 44 39 37 37 40 40 40 42 46 47 51 54 58 61 60 64 66 68 67 65 61 60 61 63 68 68

GFSSGP_prec_cthk_066.txt.gz
RH
9 10 13 21 25 25 24 26 28 24 23 25 26 25 26 34 36 54 59 54 44 41 27 33 38 50 52 58 55 57 61 63 65 63 60 58 53 51 40 30 32 35 34 38 36 33 29 27 26
9 14 19 21 27 26 23 27 28 26 25 25 23 21 25 35 42 39 43 34 28 34 30 31 37 44 49 59 61 61 66 70 69 67 66 61 61 54 51 41 39 38 35 30 32 31 29 24 25
10 15 17 23 24 25 25 26 28 26 24 20 24 26 34 35 39 34 29 26 27 31 41 34 41 47 50 60 67 68 64 67 75 78 74 69 69 65 59 54 46 37 36 35 33 29 25 26 30
12 17 17 18 21 24 29 26 26 25 22 22 28 26 35 36 37 32 28 26 28 30 43 41 42 49 53 61 71 75 72 71 74 81 79 75 77 73 64 61 53 41 35 33 25 26 28 28 31
14 16 19 20 22 24 29 27 26 23 22 27 28 30 36 40 39 30 29 29 30 36 47 46 49 52 59 72 74 92 88 78 73 78 79 73 76 68 58 56 48 39 31 27 25 28 29 30 31
18 16 20 21 22 27 26 28 26 24 21 21 35 40 41 41 41 37 29 34 40 39 41 48 49 55 64 74 86 96 96 93 88 82 85 79 73 70 68 49 43 38 31 28 28 30 31 30 30
18 19 19 20 22 25 26 30 27 25 23 31 37 36 38 45 51 43 38 35 36 36 36 46 51 55 68 75 79 82 95 98 97 86 84 80 71 65 70 51 41 35 32 31 31 31 32 33 35
18 20 20 21 23 26 27 31 29 28 26 27 27 31 44 50 46 37 39 32 32 33 36 38 46 52 59 72 77 80 90 92 98 88 79 79 73 71 72 54 37 36 31 31 34 33 33 36 37
20 21 20 20 23 26 30 30 29 26 26 24 25 33 43 43 35 35 38 37 39 37 35 38 43 46 58 69 80 83 77 84 97 93 75 81 70 68 61 54 38 35 32 33 36 35 36 36 38
22 22 19 19 24 29 28 32 29 29 31 31 30 37 40 43 38 35 36 44 42 41 40 43 47 51 56 70 84 86 82 79 89 96 91 78 68 61 71 62 44 38 36 39 41 39 39 39 41
22 21 21 20 26 26 26 30 29 28 27 23 33 36 42 41 36 32 32 35 44 49 47 45 54 56 64 76 79 86 86 88 96 93 91 76 65 64 74 70 52 45 44 44 46 41 40 41 45
25 22 23 21 26 26 27 27 26 26 29 27 28 30 33 35 34 37 34 36 45 47 53 56 66 65 71 76 83 88 90 85 89 97 89 85 72 66 78 71 59 51 51 49 49 42 41 42 47
26 24 25 23 26 26 28 26 25 25 27 26 28 30 31 36 37 40 31 30 40 46 59 62 66 71 72 78 79 92 93 90 92 98 95 92 79 77 76 66 62 61 58 54 50 50 48 45 51
28 27 25 25 26 28 29 27 26 23 25 28 31 33 33 36 39 40 32 30 39 42 54 58 58 60 66 68 73 87 92 96 97 98 97 96 89 81 77 64 64 69 62 55 56 57 54 52 54
27 31 30 26 26 28 30 28 27 27 25 26 30 34 35 39 39 40 34 30 33 42 48 48 51 53 56 67 64 72 86 90 92 93 96 97 91 86 82 73 74 72 66 58 60 68 56 57 63
34 33 31 25 28 29 31 27 28 30 30 29 32 36 39 39 41 41 36 29 29 34 40 45 46 50 53 58 59 73 78 83 91 97 97 95 93 88 84 81 82 77 71 60 63 71 59 65 66
33 34 29 25 29 32 32 32 32 33 32 35 38 39 42 41 42 43 40 31 27 32 33 35 42 45 49 53 58 63 76 86 89 94 95 95 92 87 89 89 88 83 77 66 70 71 63 68 69
35 31 29 31 31 33 35 33 35 38 39 39 37 33 46 41 42 43 41 31 30 29 30 33 37 39 42 51 58 64 70 78 87 94 96 98 95 94 91 93 95 89 97 84 76 72 72 75 75
36 34 43 40 34 37 37 36 34 37 37 37 40 39 38 41 43 43 42 34 30 29 30 31 34 38 43 59 64 68 65 73 84 91 95 95 94 82 85 93 92 88 82 80 78 75 75 77 76
37 42 45 45 43 40 38 35 36 35 38 36 38 38 41 44 43 42 42 36 31 26 27 30 30 36 47 66 77 78 70 74 78 87 92 92 91 86 91 89 89 86 83 79 78 78 76 76 78
46 45 47 44 41 40 37 36 36 34 29 31 30 34 39 45 42 41 40 38 32 30 26 28 29 38 55 70 82 79 72 73 77 83 88 87 85 86 87 88 89 85 81 77 78 75 78 79 75
51 47 46 47 48 45 41 41 41 37 32 30 30 32 31 29 39 39 38 38 35 30 25 28 28 34 54 70 79 81 73 73 75 80 85 89 87 87 91 87 85 81 78 80 80 82 84 82 81
61 62 62 56 50 46 41 42 41 34 35 33 32 33 35 34 33 36 37 38 35 31 30 26 28 35 43 56 70 74 75 74 77 78 82 87 88 87 87 88 87 78 78 81 87 86 89 87 90
71 72 69 61 55 52 41 43 42 39 37 35 36 37 32 33 34 35 37 39 38 30 29 30 27 31 41 45 51 60 64 68 77 82 85 89 89 85 83 91 85 85 83 84 86 90 94 86 88
68 79 73 69 62 54 44 44 39 41 39 39 40 34 30 30 32 34 38 39 40 30 27 29 28 28 35 43 45 49 56 60 63 70 78 83 86 85 86 88 82 85 85 85 86 90 91 97 93
65 73 72 82 70 53 45 44 36 42 41 39 36 33 32 36 33 34 37 38 41 35 28 29 29 29 31 37 43 45 50 54 56 61 68 77 83 88 90 90 89 86 86 85 90 92 89 94 92
72 78 59 62 69 71 55 44 42 45 42 38 37 37 35 37 36 32 33 36 42 38 31 29 31 30 30 33 40 45 44 47 51 55 61 69 80 89 91 90 89 84 83 82 83 84 86 86 91
70 65 71 64 79 78 57 50 48 46 47 43 42 43 45 41 41 33 34 36 42 40 37 33 34 33 31 34 40 47 47 47 47 52 54 57 65 74 77 75 74 74 76 79 75 74 77 78 77
71 69 74 71 64 72 69 63 56 49 48 50 50 50 47 48 38 40 39 39 42 46 42 39 38 37 36 35 37 40 44 49 49 52 54 58 61 62 61 62 63 64 63 64 60 62 69 68 67
67 72 69 80 72 62 64 64 57 58 55 55 54 57 56 56 42 43 42 41 44 51 49 45 42 41 39 39 38 40 41 42 45 54 52 54 57 62 63 59 61 63 64 66 64 61 58 63 63

GFSSGP_prec_cthk_069.txt.gz
RH
9 10 12 17 22 22 26 26 25 27 32 29 26 30 28 25 29 42 49 49 46 43 37 36 28 30 38 49 50 51 50 50 57 60 57 53 52 46 38 32 24 27 30 30 28 24 24 26 30
10 12 17 19 22 26 27 23 27 30 32 29 29 30 27 28 32 38 35 41 37 28 24 25 29 33 41 48 52 51 50 54 60 61 60 57 54 54 38 34 34 39 39 38 34 29 26 27 31
11 15 19 21 22 24 28 23 26 27 25 25 27 25 26 32 34 36 34 29 24 27 23 26 30 34 41 44 49 54 53 56 62 68 67 63 58 53 44 38 46 43 42 39 32 29 27 29 32
13 19 19 20 20 16 23 25 25 24 24 26 26 25 31 32 30 30 29 26 20 22 28 26 32 38 43 50 54 64 65 66 69 77 70 69 66 58 55 42 47 46 42 38 31 29 33 33 33
15 19 19 20 17 16 23 30 32 26 27 30 29 27 30 31 32 32 31 28 23 26 30 34 41 43 46 61 68 71 80 77 70 76 79 78 74 67 61 56 49 50 42 38 32 34 32 32 34
18 18 21 20 16 19 24 25 31 26 27 27 25 25 35 33 35 37 37 35 30 26 32 35 42 50 52 56 73 89 90 92 91 86 82 91 79 76 66 57 53 51 44 36 35 38 32 33 37
19 21 20 19 17 22 24 30 31 30 26 29 29 31 38 34 36 36 36 30 29 25 31 34 38 46 54 60 66 81 92 82 96 98 96 94 83 73 75 65 56 45 47 40 37 32 31 36 38
20 24 24 22 19 20 28 30 32 28 27 29 28 28 35 30 35 37 31 27 29 31 33 33 36 44 52 60 68 77 88 92 85 93 98 96 83 67 73 72 50 40 36 36 31 32 33 36 39
24 29 25 21 21 22 32 36 35 33 29 28 26 23 22 31 37 36 31 28 29 32 34 36 36 41 49 59 62 70 79 84 82 81 97 96 86 66 66 70 51 41 34 37 36 33 36 38 43
26 27 22 17 17 27 34 34 35 31 27 27 27 27 29 33 36 35 29 27 31 34 40 43 44 45 46 51 54 61 68 75 73 77 86 98 88 68 67 69 55 38 37 37 35 35 39 42 45
24 24 19 17 17 32 35 34 32 32 30 27 26 31 32 34 35 36 31 30 30 39 48 58 64 57 55 53 56 61 75 78 83 76 98 95 87 69 62 58 56 38 43 38 35 38 43 42 46
32 25 20 17 19 29 32 33 32 32 30 27 26 26 29 31 33 32 33 33 31 41 50 59 61 69 61 59 68 69 77 82 85 83 92 98 84 62 61 47 50 45 43 39 38 40 45 47 50
34 26 21 19 19 28 29 29 29 29 29 28 28 28 28 31 33 33 35 33 28 36 40 55 63 69 66 65 68 69 78 84 82 93 90 95 82 67 59 59 47 51 46 43 43 44 48 54 51
37 32 25 22 22 25 29 28 30 28 27 25 25 28 28 29 34 33 34 35 27 29 39 48 54 60 61 56 59 64 78 85 88 95 97 96 85 63 65 62 51 58 50 49 46 45 50 56 48
36 38 31 24 24 24 29 28 28 29 29 27 25 29 30 30 34 35 34 34 26 26 32 45 47 47 52 54 56 60 75 88 90 95 98 96 84 75 72 64 57 61 56 56 51 48 48 51 49
44 42 35 25 24 25 30 26 28 31 31 29 29 30 31 29 34 36 34 34 28 23 27 35 42 47 49 53 56 59 70 86 94 96 99 97 89 83 78 74 58 60 59 57 56 55 53 54 52
52 49 38 28 24 24 29 27 30 34 31 30 29 31 35 32 34 39 34 33 28 23 24 32 37 38 43 48 52 55 63 73 86 89 90 94 93 88 86 79 72 69 68 69 67 61 60 58 59
63 50 37 27 22 31 35 33 32 38 38 37 32 34 37 37 36 36 36 34 30 24 24 28 35 37 39 42 49 52 59 65 77 83 88 90 90 92 89 84 78 79 73 72 73 70 70 60 64
61 55 44 31 29 41 42 39 35 38 39 42 38 37 37 39 41 36 36 34 33 25 24 26 31 32 38 41 54 63 67 64 73 79 88 93 90 88 92 86 86 85 87 75 78 73 73 65 70
64 57 43 31 36 52 46 42 39 39 39 38 36 36 36 42 41 36 37 35 33 28 23 26 27 30 37 51 63 70 73 71 69 79 88 94 94 91 93 89 92 92 94 93 89 82 75 74 76
65 58 44 37 46 54 48 47 41 36 37 36 34 35 35 40 40 37 36 36 34 31 22 23 27 30 38 57 67 73 75 71 73 76 84 91 94 95 97 92 92 93 93 96 96 88 77 76 79
74 61 52 45 51 61 52 52 42 39 43 38 36 32 33 38 40 35 35 36 32 32 25 24 28 31 37 52 62 71 67 68 71 76 81 87 93 96 96 94 90 95 95 93 92 87 80 76 77
79 71 59 55 63 64 51 50 38 39 40 37 35 33 34 34 37 34 33 35 34 30 26 24 28 30 37 45 51 65 70 68 69 72 78 85 91 88 89 92 91 91 90 92 89 84 80 77 75
77 78 65 59 64 73 52 51 38 37 37 37 37 35 35 33 37 33 34 36 36 32 27 24 29 28 33 42 47 50 57 62 66 74 82 84 88 88 87 88 90 86 85 79 73 71 75 76 81
81 91 88 74 69 72 46 49 37 37 41 42 38 35 39 36 37 36 34 36 36 34 27 25 28 27 30 37 42 46 49 52 59 61 68 79 84 84 81 81 82 82 82 79 78 77 79 82 84
78 87 87 92 93 70 51 53 37 40 44 45 42 39 39 36 36 38 34 33 34 36 33 25 27 28 28 33 40 45 46 49 50 52 58 65 75 78 81 83 82 85 82 84 82 82 87 86 86
85 83 74 94 83 85 66 52 44 45 45 45 42 41 42 39 38 40 36 31 32 34 36 29 27 30 29 30 36 44 49 48 47 49 51 55 63 77 83 85 86 87 87 90 87 86 88 89 90
88 82 94 98 96 93 67 64 53 54 47 44 45 44 42 43 43 43 40 33 31 34 38 34 32 32 30 33 38 42 47 47 48 51 50 51 54 66 76 82 82 84 86 85 80 77 79 81 86
81 95 96 94 85 85 90 77 67 58 55 53 53 50 49 49 47 44 42 39 37 39 40 41 38 36 37 37 38 41 44 46 51 49 52 56 58 58 61 65 66 69 68 67 67 67 70 73 77
76 79 89 97 93 76 78 77 69 63 60 57 58 57 50 48 47 43 45 49 44 42 43 46 43 41 41 41 40 40 42 44 45 47 48 50 53 57 61 62 60 59 58 60 62 66 65 63 64

GFSSGP_prec_cthk_072.txt.gz
RH
10 9 11 16 20 21 23 25 24 24 27 26 23 25 28 31 31 32 27 35 38 39 38 36 37 36 29 33 41 48 50 49 50 51 53 45 45 48 46 43 38 30 25 23 27 32 32 29 32
10 10 14 19 23 25 22 23 24 24 26 25 25 27 28 36 30 27 26 30 32 34 34 30 25 27 35 39 43 51 53 50 49 49 49 48 46 44 39 39 35 27 25 28 33 33 30 30 33
11 12 17 21 23 24 23 23 23 23 25 24 23 26 29 31 27 25 26 25 25 25 21 20 22 26 35 44 50 52 55 59 61 60 57 49 45 41 40 37 36 36 35 36 36 34 32 33 34
11 15 19 21 20 16 16 24 25 25 24 23 24 30 32 29 26 26 26 26 27 24 17 21 25 27 31 40 50 55 56 59 59 61 66 63 57 48 37 33 40 47 49 41 37 33 33 34 33
12 18 21 20 17 12 14 26 27 27 26 24 25 29 31 30 26 26 30 31 29 28 25 26 32 32 34 38 45 54 62 67 67 66 71 63 65 61 51 44 45 46 46 44 37 39 38 35 34
13 16 21 21 16 12 19 24 25 25 26 27 27 30 32 31 25 29 32 32 31 26 28 27 32 36 40 47 49 59 80 78 84 79 73 70 72 76 63 53 51 49 40 43 38 42 41 39 36
14 17 19 17 16 14 19 25 25 25 26 29 28 32 35 33 28 29 34 32 30 24 26 27 31 36 39 44 54 59 81 98 98 97 95 93 84 92 71 56 48 52 41 41 41 38 40 43 43
14 18 19 19 18 16 23 27 26 29 34 33 30 34 37 32 27 28 33 33 29 28 26 24 28 32 37 45 53 57 66 91 95 93 97 94 95 94 79 58 54 52 40 42 46 48 49 50 40
17 22 23 20 17 14 24 30 28 37 38 35 30 30 27 27 26 32 34 33 28 26 26 27 31 33 37 42 50 58 69 83 86 88 89 86 94 95 84 73 64 53 40 44 41 49 52 42 41
21 23 22 16 16 14 26 34 32 34 40 32 28 30 29 28 27 31 30 32 31 31 28 34 39 45 49 47 48 52 64 75 79 79 80 82 90 98 85 77 66 51 44 47 53 49 46 41 44
22 22 20 17 17 16 23 37 35 33 32 30 29 32 28 29 30 31 30 32 30 31 29 38 51 57 60 58 52 53 59 66 74 78 81 77 83 98 82 74 68 46 45 41 40 47 51 50 47
27 24 23 20 20 18 18 36 33 31 29 30 31 32 31 30 30 30 29 30 31 32 31 39 51 58 62 61 58 61 64 70 75 81 79 80 89 93 75 68 60 58 43 39 45 49 50 48 50
29 27 27 23 22 21 19 33 33 31 28 30 33 36 33 30 30 29 31 33 34 34 31 33 46 56 57 57 59 61 65 71 78 84 85 83 85 84 78 69 56 61 48 41 45 48 47 51 53
28 33 32 27 25 24 22 26 35 29 28 30 31 34 33 30 30 29 32 33 35 35 27 28 42 49 51 54 56 58 59 73 84 85 88 98 90 83 73 60 54 49 43 42 44 49 49 55 61
32 38 36 30 28 27 25 27 28 25 30 31 32 32 31 29 31 31 30 33 34 35 26 25 33 44 50 54 56 55 61 78 87 86 90 98 92 84 61 55 41 43 46 50 50 53 53 58 60
37 43 42 34 31 29 30 25 24 27 26 30 31 31 30 31 33 36 30 32 33 34 24 23 27 34 40 47 52 58 60 78 90 95 94 99 94 82 68 56 56 48 47 52 49 49 55 58 58
45 50 46 41 37 34 33 27 21 24 28 32 33 31 29 33 37 37 34 36 34 33 23 22 27 29 34 39 45 51 55 66 90 97 96 99 94 84 70 61 58 53 51 54 49 56 56 55 56
57 57 53 46 42 43 38 30 22 24 33 33 33 32 31 35 37 38 38 36 37 34 23 20 26 30 32 35 42 50 53 62 81 96 97 95 95 89 79 71 65 63 61 58 54 58 57 54 52
59 60 60 54 52 44 37 33 27 32 35 36 35 37 37 37 39 44 42 39 38 37 27 19 23 28 29 32 44 53 60 64 68 79 85 90 91 93 89 80 75 73 66 68 66 62 61 60 58
61 64 64 56 53 47 39 37 34 35 34 37 35 39 38 41 44 45 42 39 38 37 31 21 21 25 27 37 51 61 71 71 71 73 79 85 91 92 91 90 82 78 73 76 77 74 67 72 66
62 67 69 64 57 47 41 42 39 36 35 35 36 37 39 39 41 43 41 39 38 37 32 23 19 25 28 39 54 65 72 76 72 73 77 86 92 97 94 93 90 88 84 84 82 80 77 78 73
68 69 75 74 64 54 54 60 42 37 35 36 39 38 38 39 39 41 41 39 38 37 34 26 22 25 30 39 50 61 66 68 70 76 78 89 92 95 96 95 94 90 90 88 86 86 84 84 75
75 77 78 76 71 60 60 61 45 41 36 35 35 37 36 35 37 40 41 39 37 39 34 27 23 24 28 36 45 56 62 64 66 71 76 81 91 96 95 96 96 94 94 94 93 93 94 92 81
77 87 82 76 73 72 56 63 47 42 34 34 37 36 35 35 37 39 41 42 38 42 38 29 24 24 27 31 41 45 55 58 65 69 75 79 88 96 99 97 97 97 97 96 96 97 94 93 88
82 92 90 87 85 75 45 59 43 41 41 40 39 38 35 32 35 40 40 40 40 41 40 30 25 25 26 29 36 42 45 50 54 57 68 80 87 93 93 94 96 96 97 96 95 94 94 93 90
85 95 97 92 90 80 52 55 45 42 44 41 43 37 34 36 34 37 39 38 38 40 41 33 25 26 26 27 34 40 46 43 45 48 52 58 71 85 91 92 94 96 97 95 94 92 91 87 83
89 94 85 95 91 89 64 52 40 46 49 48 44 39 36 37 37 38 41 39 37 36 40 39 29 26 27 26 33 40 44 46 45 45 47 52 60 72 84 89 88 90 93 93 89 85 80 79 77
84 86 94 97 97 96 68 62 64 55 59 50 49 45 44 47 45 42 40 39 35 34 42 42 34 28 29 29 33 41 42 44 45 48 50 52 57 62 74 86 91 90 88 88 88 85 85 83 81
93 96 96 93 90 98 91 90 70 70 70 60 56 51 48 46 43 42 45 46 43 41 43 45 41 36 34 34 32 37 41 46 49 49 51 55 59 61 62 71 79 78 76 77 76 77 78 76 76
82 91 96 99 92 89 96 92 85 85 73 69 63 58 54 49 47 50 53 54 57 51 52 49 49 44 41 39 38 37 39 43 45 50 52 55 54 59 61 65 67 67 65 64 64 64 65 65 67

GFSSGP_prec_cthk_075.txt.gz
RH
9 9 10 14 18 21 21 20 21 22 24 25 25 23 24 26 28 32 32 30 27 28 30 30 31 32 37 35 33 34 36 40 42 44 44 48 46 45 48 50 52 51 49 34 28 26 35 46 31
9 9 11 17 22 24 20 19 20 22 24 26 26 26 27 29 30 30 31 29 24 25 26 28 29 31 32 33 34 38 43 47 53 53 55 56 47 54 48 49 52 48 37 31 27 33 41 37 32
9 9 14 19 24 24 17 19 20 22 24 27 26 24 25 27 27 28 27 22 21 22 22 22 21 23 30 30 32 39 47 54 63 57 54 51 51 51 43 48 42 38 34 32 33 39 38 34 35
10 11 15 21 21 17 14 16 21 21 23 24 25 27 28 28 28 28 25 21 22 24 24 21 18 23 26 30 34 41 49 54 62 60 62 61 55 48 43 37 35 36 33 36 35 36 36 33 33
11 14 21 23 19 14 13 13 16 21 23 23 24 27 30 30 30 28 28 20 24 24 25 23 23 26 32 33 37 44 52 58 66 66 71 66 62 58 48 39 31 35 45 47 45 37 37 32 34
14 16 22 25 18 13 12 11 16 23 24 23 25 30 31 31 31 31 30 25 27 26 22 24 25 29 33 36 44 51 59 67 74 79 73 80 67 69 58 47 41 48 51 48 42 44 38 35 37
14 16 19 18 16 14 12 12 17 23 24 24 26 34 34 33 33 36 32 28 27 23 21 22 25 27 32 36 43 53 61 70 88 97 90 93 87 86 77 67 59 54 55 39 43 41 43 38 36
17 18 20 18 17 14 11 13 21 24 25 24 29 36 37 34 35 36 30 31 28 27 25 22 21 23 28 35 42 54 64 66 82 92 98 90 91 85 92 83 68 64 53 41 37 37 39 36 42
19 21 23 19 16 13 12 13 25 27 26 28 34 35 32 33 35 34 29 33 32 28 28 25 21 26 32 38 43 48 57 66 79 82 85 91 96 93 94 93 67 64 46 45 41 43 40 41 40
22 25 20 15 14 14 14 14 25 27 29 30 33 34 32 31 33 33 29 30 30 30 27 27 24 33 40 49 52 56 54 59 70 86 86 89 89 93 93 88 69 60 46 49 50 51 53 50 51
23 22 17 17 16 16 16 15 21 31 32 34 34 28 34 34 35 32 29 29 29 30 29 28 27 37 49 58 61 62 60 60 62 74 84 85 86 85 91 89 79 71 63 58 51 50 48 48 55
25 20 19 19 20 20 19 17 23 32 31 36 27 26 34 37 35 33 34 27 30 31 32 28 29 38 53 62 66 66 63 62 63 71 74 78 80 80 89 94 83 63 64 60 53 52 51 53 44
20 20 21 22 23 23 22 19 20 31 36 33 28 26 33 36 36 35 36 30 32 32 33 28 27 34 45 51 54 60 63 68 70 77 82 84 83 85 90 93 79 62 55 57 53 55 54 56 56
18 20 21 23 23 26 26 22 24 22 32 30 29 26 29 33 35 36 35 30 33 32 33 29 21 29 40 45 48 52 54 58 68 76 84 92 91 89 92 88 76 64 55 53 49 52 55 58 60
24 24 22 25 26 28 30 25 22 19 30 30 29 26 28 32 33 33 31 28 32 31 33 28 19 25 33 40 48 53 55 59 69 83 89 91 94 94 91 83 73 60 59 57 52 55 62 61 51
31 30 30 25 29 31 38 25 23 22 22 28 31 29 31 34 33 33 31 31 35 35 33 29 19 22 28 34 38 43 51 56 67 90 94 92 94 95 95 82 75 60 54 62 48 52 59 59 56
35 37 35 32 32 36 43 30 26 26 23 26 28 29 34 35 35 34 36 38 39 39 35 29 19 20 26 30 34 36 40 48 59 86 93 96 98 97 95 83 62 53 49 43 41 51 58 60 60
43 44 39 37 36 45 45 36 30 29 25 25 26 29 32 34 33 35 38 38 44 43 38 30 19 20 25 27 31 34 38 46 56 88 99 98 98 99 93 79 61 46 44 44 49 61 66 66 61
39 45 45 42 45 55 50 42 34 33 28 23 24 25 29 33 33 38 43 44 47 43 38 32 22 18 23 24 30 41 48 56 61 88 98 97 98 96 89 78 60 58 52 49 53 62 64 62 63
40 44 48 50 54 58 55 44 40 37 28 26 27 28 31 36 37 40 45 47 43 39 38 33 26 17 19 26 31 44 55 65 69 79 95 93 94 93 89 82 68 66 61 55 59 62 68 65 65
46 49 55 61 61 60 57 50 40 30 28 34 32 30 37 39 37 42 44 48 45 38 39 34 28 19 22 27 33 46 59 72 73 71 82 93 92 93 94 89 75 73 69 62 63 68 73 70 68
57 51 54 68 71 68 62 62 44 33 36 38 36 35 36 39 39 39 41 48 46 40 41 35 30 22 24 27 33 47 57 68 73 69 74 80 87 95 96 95 88 82 77 76 74 73 73 71 71
59 59 72 76 79 79 72 73 46 35 39 40 39 35 34 35 36 39 43 46 49 41 42 36 32 25 24 28 33 44 53 60 64 70 74 77 84 93 96 99 94 88 88 85 86 87 85 85 83
59 70 80 83 86 91 70 70 53 40 40 40 41 39 39 39 38 38 44 50 51 48 44 39 33 27 25 28 32 40 46 57 64 66 70 73 80 88 94 98 96 94 91 92 92 96 92 90 85
64 80 90 94 96 81 60 66 49 41 43 43 45 42 41 41 38 40 42 46 50 49 46 42 34 27 25 28 32 36 43 46 52 57 61 70 78 83 92 97 96 96 95 95 96 94 94 93 93
68 78 89 90 88 72 62 67 50 40 46 50 48 44 41 40 39 36 39 41 48 54 48 44 35 27 25 27 31 36 40 45 47 48 52 60 77 88 89 99 97 97 98 96 96 96 97 97 95
80 88 85 99 94 92 75 65 51 47 48 53 51 46 41 41 39 40 40 39 45 51 47 45 41 32 27 27 29 36 38 41 44 45 48 53 59 68 81 90 93 95 97 96 97 97 96 93 95
80 85 97 98 95 95 75 68 69 64 59 55 51 50 51 44 44 43 43 44 51 50 47 46 46 37 30 29 31 35 40 41 43 43 45 48 53 57 65 78 86 88 96 96 96 95 94 94 94
87 92 97 93 91 95 91 93 79 79 69 62 58 58 60 49 48 49 52 56 58 55 51 54 52 44 39 37 38 39 42 45 46 45 47 49 53 59 62 69 83 91 93 94 94 95 95 94 94
74 82 97 99 95 92 96 86 87 84 78 70 70 71 68 60 56 57 59 61 63 63 57 59 58 53 47 46 44 43 41 44 47 51 53 53 53 56 60 66 68 71 74 75 76 81 80 80 81

GFSSGP_prec_cthk_078.txt.gz
RH
9 9 8 12 15 19 21 15 16 19 20 22 22 24 25 24 26 28 28 27 27 29 27 27 29 30 31 32 34 33 31 33 39 48 53 60 58 68 60 63 59 56 52 53 41 32 33 44 46
10 9 10 15 19 20 17 15 17 17 19 21 26 27 26 25 27 27 27 29 30 25 22 22 23 26 30 34 34 34 37 36 39 42 50 54 53 52 56 58 57 51 52 48 41 35 34 40 50
11 10 12 16 24 18 15 12 15 17 18 21 23 26 25 25 27 26 27 28 27 24 21 21 21 21 24 29 31 36 37 40 42 44 50 58 57 60 60 54 58 54 54 45 36 35 32 42 36
12 12 14 20 22 16 12 12 16 18 19 22 24 26 26 24 25 27 28 27 28 27 24 24 21 24 24 28 30 35 38 43 45 47 54 63 54 58 59 55 50 52 53 44 41 35 38 38 33
13 13 20 24 21 14 12 11 13 15 17 21 22 22 24 25 27 29 28 27 30 27 26 24 21 24 27 31 36 37 42 47 51 55 49 76 56 63 61 56 51 43 45 43 44 40 42 40 33
15 16 23 27 20 13 11 11 11 10 13 20 21 22 24 27 28 29 28 30 31 27 25 22 20 23 27 32 36 41 50 54 60 67 64 70 87 76 88 56 50 44 35 39 50 45 40 37 36
17 20 21 20 18 15 11 11 11 11 14 20 22 25 25 27 29 30 29 32 31 28 26 25 24 23 24 28 32 40 46 55 67 73 94 91 96 83 89 79 63 50 45 45 50 44 42 41 38
21 20 21 19 18 15 12 12 11 12 17 21 27 29 27 28 30 30 31 32 32 30 29 26 26 24 21 27 32 40 50 64 63 69 81 79 85 95 90 87 78 76 65 48 48 44 44 39 45
23 25 27 21 18 15 16 13 12 12 17 22 26 27 31 33 33 30 30 32 31 30 30 28 26 24 24 31 37 45 51 60 64 72 79 84 81 94 93 95 92 83 84 54 43 47 40 39 50
25 28 21 19 18 17 17 15 13 12 17 23 28 30 32 33 37 28 29 30 29 30 30 29 28 28 26 34 42 55 56 62 66 66 76 80 88 86 87 95 95 97 90 60 44 43 40 40 43
25 25 22 21 20 20 20 18 15 13 17 24 28 30 31 32 35 34 32 31 30 30 30 30 30 31 28 37 53 61 65 67 71 69 71 83 88 84 86 96 95 97 91 60 46 42 42 44 40
26 22 22 23 21 21 20 19 18 14 14 25 26 29 31 29 30 32 33 32 34 32 32 31 32 32 29 38 53 58 68 69 71 68 70 75 80 89 91 92 95 97 86 60 51 51 48 48 48
22 20 20 19 20 23 24 22 20 17 15 23 27 30 29 28 29 32 33 33 35 30 33 33 33 32 28 34 45 49 55 64 70 69 64 66 75 74 82 86 91 93 86 62 55 53 52 51 52
17 20 20 19 20 21 23 20 23 21 16 20 30 30 28 27 30 31 32 32 33 32 34 32 34 31 26 32 40 46 52 54 57 59 68 73 77 80 82 85 91 92 86 65 65 62 52 50 53
20 21 22 22 22 24 25 23 24 21 20 19 31 31 29 28 28 28 30 32 32 34 37 33 35 30 25 28 33 42 48 53 60 63 71 80 85 90 89 86 94 97 84 64 65 63 57 56 60
21 24 28 23 25 24 23 22 23 27 24 20 26 30 29 27 24 27 33 36 35 34 39 38 36 30 25 26 31 37 43 48 53 58 63 85 96 93 96 94 94 96 89 64 62 59 58 57 63
25 32 29 30 27 29 30 24 26 28 27 24 22 31 31 28 26 29 39 38 37 36 39 42 37 29 25 25 30 35 37 41 46 53 58 75 97 98 98 98 96 94 83 68 70 60 55 58 65
31 34 35 38 35 34 35 29 31 32 34 28 25 25 31 29 27 32 38 40 41 37 41 44 38 31 26 26 28 31 36 41 48 51 55 79 97 98 98 97 97 92 82 68 66 72 69 61 59
29 33 36 34 35 42 41 38 36 36 38 32 28 24 24 25 28 33 34 41 42 41 42 46 39 32 27 26 27 31 37 45 55 61 70 89 97 98 99 97 93 91 73 57 63 69 58 60 62
31 35 37 35 36 42 45 40 41 41 41 35 30 26 24 24 29 31 32 42 43 41 43 44 40 32 26 25 29 32 39 50 60 70 71 90 99 99 97 98 89 89 69 60 59 54 59 68 68
42 44 43 43 42 43 46 40 42 43 44 37 33 27 24 25 27 32 36 42 43 41 43 41 41 33 26 26 30 32 41 56 69 75 76 95 98 99 99 98 96 86 57 51 53 57 62 67 73
50 46 50 50 56 55 56 60 46 47 46 44 39 28 27 29 32 38 42 43 42 43 45 42 41 34 27 25 29 33 44 58 71 77 74 81 90 93 91 91 89 82 66 65 62 67 70 70 74
48 50 56 59 64 66 67 77 51 48 50 41 32 33 33 34 36 41 44 41 41 45 46 43 39 35 28 24 28 32 44 56 67 69 73 78 80 83 88 91 89 86 72 68 67 70 73 76 78
48 55 60 64 71 76 68 76 58 51 49 33 34 41 40 40 42 44 46 47 44 48 48 43 41 37 28 23 28 34 44 50 62 68 70 73 77 81 85 94 94 90 79 79 76 72 71 78 82
57 64 71 77 79 75 63 76 60 51 50 35 42 43 46 44 43 44 45 44 42 48 51 45 44 38 29 24 29 34 43 48 54 61 64 69 71 75 81 92 96 95 91 90 86 84 85 85 87
65 69 74 79 86 83 63 68 58 64 58 44 44 48 49 45 44 44 42 39 40 46 52 49 46 40 30 26 29 34 40 48 51 53 55 57 64 79 87 91 97 98 95 93 92 92 94 94 94
72 79 77 86 85 92 73 61 59 65 60 52 47 49 52 46 47 45 45 42 40 44 52 54 51 46 31 28 30 35 40 44 49 50 50 49 54 65 83 91 95 99 98 97 96 95 94 94 95
74 80 89 91 92 95 75 71 79 77 73 62 56 63 58 52 52 50 49 50 48 51 59 61 56 49 38 33 32 35 41 44 45 48 50 51 52 55 63 70 79 88 95 96 97 97 95 96 96
83 88 89 92 95 93 92 83 86 86 85 73 71 66 65 61 59 55 55 54 54 56 60 66 61 50 42 38 34 36 38 43 45 47 50 52 54 58 61 65 72 81 86 91 94 98 98 97 97
75 81 87 95 95 96 96 81 86 92 88 82 75 70 69 67 67 64 61 60 58 60 66 69 66 54 43 42 41 41 42 42 46 49 50 52 52 53 56 60 63 71 84 88 92 94 92 93 97

GFSSGP_prec_cthk_081.txt.gz
RH
11 11 10 12 13 14 13 10 11 14 16 18 20 18 20 21 25 23 23 25 24 23 25 26 25 26 26 26 27 32 33 33 32 34 40 51 56 56 64 61 63 54 55 54 49 36 36 31 35
11 11 11 14 13 10 8 12 11 12 15 18 21 22 23 23 23 23 24 23 24 25 24 23 21 21 21 24 28 32 35 33 35 37 40 50 58 58 56 53 51 62 55 57 54 41 35 38 45
12 11 12 14 15 10 8 10 13 14 14 17 21 24 25 23 24 23 24 24 23 24 24 24 23 21 21 22 25 30 35 38 40 41 41 48 54 60 59 59 54 57 55 57 54 40 39 43 46
13 12 13 15 14 12 9 11 14 16 15 17 21 22 24 23 24 24 26 25 24 26 26 24 22 21 23 24 28 30 34 38 43 45 42 43 52 66 67 67 59 60 54 54 58 52 41 40 49
14 14 14 19 17 13 12 11 12 17 17 17 20 22 23 24 25 25 27 27 25 28 28 24 20 20 21 24 30 32 34 39 42 46 47 50 58 72 67 75 62 57 54 54 60 53 41 41 41
17 17 16 14 15 13 11 11 11 12 12 12 17 22 22 22 24 28 29 27 26 29 28 26 23 21 21 24 29 33 36 44 49 51 52 57 70 81 95 93 89 72 63 52 50 55 42 42 43
18 20 15 16 16 15 11 11 11 10 10 11 16 19 22 24 26 29 28 28 27 29 29 28 25 23 25 24 26 31 36 42 52 61 71 81 97 84 99 95 92 85 63 66 44 54 43 40 40
22 21 21 20 18 15 14 13 11 11 11 12 17 23 24 30 29 30 29 30 28 29 30 30 27 25 25 24 24 30 38 44 50 57 62 66 80 88 85 84 91 89 70 65 45 57 47 42 42
27 26 24 22 19 15 17 16 14 13 12 12 18 21 24 27 30 32 31 31 28 29 29 31 30 25 24 26 25 35 43 51 56 62 62 68 77 85 83 86 87 90 82 77 60 59 56 48 41
28 28 25 21 18 18 18 17 16 15 15 14 19 20 23 24 31 35 33 32 30 31 31 32 29 28 27 27 26 36 52 59 61 67 69 67 73 82 84 88 87 91 96 91 70 51 55 55 47
28 27 25 23 19 18 18 18 19 19 18 13 18 21 23 24 29 35 36 34 33 35 35 35 31 30 30 29 28 37 51 58 63 71 74 79 75 77 90 87 89 94 98 96 81 53 56 52 46
24 23 22 22 20 19 19 18 19 18 19 14 16 20 24 24 28 31 32 34 33 38 38 36 32 33 32 31 30 38 47 54 62 72 74 80 72 77 91 87 88 97 97 96 83 55 50 46 42
25 21 22 21 20 18 19 19 18 21 20 15 16 20 23 24 26 28 29 31 35 38 40 39 33 34 34 31 29 36 44 54 62 64 74 76 71 76 81 85 89 94 98 95 85 53 49 49 42
23 22 22 21 19 19 18 15 20 16 18 19 14 17 22 24 26 27 28 29 32 38 40 43 36 35 36 30 28 32 43 51 56 59 61 71 71 74 78 79 88 92 96 95 86 53 51 53 47
20 23 22 19 19 20 17 19 17 16 20 21 18 14 21 24 25 27 28 30 32 37 43 43 39 39 38 29 27 31 36 42 48 53 62 63 71 75 82 85 82 89 91 95 86 60 56 59 55
22 23 22 21 21 20 21 22 19 19 21 22 21 16 18 24 23 24 26 28 33 37 45 46 41 42 40 29 27 29 32 36 43 48 57 63 67 80 88 91 88 89 93 95 79 63 59 58 57
23 22 28 24 21 22 22 23 21 20 21 22 25 21 17 23 25 26 27 28 31 42 47 42 44 45 40 32 27 28 33 35 40 45 50 55 59 72 87 97 95 92 96 94 86 70 71 60 59
23 28 30 28 22 23 25 25 25 22 23 26 26 26 20 22 26 29 29 28 37 45 43 45 46 49 41 34 28 30 32 34 37 45 51 58 60 64 87 99 96 95 98 98 88 69 64 65 64
23 25 28 26 26 27 24 23 24 28 28 29 28 28 26 21 25 29 29 29 37 41 45 45 49 51 42 34 28 28 31 34 40 46 54 59 66 79 98 99 98 98 97 99 88 71 63 64 69
29 31 30 30 30 32 29 26 27 28 28 29 30 30 28 24 23 28 28 30 37 39 45 47 49 46 42 34 26 29 33 36 45 54 59 68 73 84 99 99 99 96 97 98 88 69 68 65 64
35 40 39 40 36 36 34 28 22 26 28 30 31 33 33 27 22 22 25 27 33 37 44 46 47 42 42 34 29 30 35 39 52 64 70 72 85 95 98 98 98 98 97 95 84 67 64 78 71
46 39 42 44 49 51 44 43 31 31 32 33 33 37 36 28 24 21 21 26 32 39 47 45 44 42 41 37 30 31 35 45 59 72 76 73 90 96 99 99 98 99 96 93 77 67 63 64 58
50 43 46 48 55 58 51 56 37 38 41 40 41 43 38 30 28 21 25 34 42 45 48 47 40 44 40 36 29 32 37 49 59 69 74 76 79 89 96 98 98 96 96 92 76 66 65 64 62
48 45 47 52 57 62 48 57 45 46 48 49 46 46 41 39 31 25 36 44 45 48 46 48 41 44 41 36 28 31 38 48 55 68 76 83 82 79 82 90 95 95 94 90 68 67 68 65 69
45 51 53 59 65 53 52 61 55 57 65 62 53 44 45 44 33 36 45 44 46 45 47 47 43 47 44 36 27 32 40 47 54 60 68 75 79 81 81 84 89 92 91 83 78 71 70 73 77
56 54 55 64 66 66 60 63 60 73 69 67 62 46 50 47 42 43 44 49 48 44 50 51 49 50 48 35 29 33 41 46 51 54 57 60 65 75 79 82 86 87 91 89 86 84 77 79 81
64 64 62 72 68 78 59 57 69 70 68 65 64 54 54 54 50 48 46 50 51 52 54 55 55 56 52 34 29 34 40 45 49 49 53 51 53 59 77 85 91 90 91 90 89 89 87 87 86
64 71 82 83 78 76 63 71 76 77 72 74 68 57 64 64 59 51 51 53 56 55 54 58 58 60 55 37 31 33 40 41 45 47 49 48 52 54 58 67 81 92 97 95 93 91 93 89 89
80 86 82 85 85 78 77 71 88 86 82 83 77 67 69 69 68 64 60 61 60 59 56 59 62 63 59 40 36 36 37 41 43 44 47 49 51 53 58 64 68 73 80 88 91 91 91 91 92
76 84 81 83 85 92 89 78 88 93 91 88 86 76 67 71 73 68 69 68 66 65 62 63 66 69 69 42 37 40 39 41 43 44 47 51 53 54 56 59 62 70 74 80 83 89 94 96 96

GFSSGP_prec_cthk_084.txt.gz
RH
10 11 12 14 15 11 9 9 8 11 13 14 15 13 16 20 24 27 23 21 20 20 19 20 20 21 21 22 25 27 31 33 32 34 37 41 44 52 52 56 57 57 50 49 47 47 46 47 47
12 12 13 17 11 11 10 9 9 10 12 14 16 17 18 19 20 23 24 21 20 19 21 22 20 19 18 19 22 25 28 32 32 35 39 45 51 52 55 60 64 62 56 56 54 50 40 36 33
13 13 14 13 13 10 9 9 10 12 11 13 18 21 23 22 24 25 24 19 19 20 21 22 20 20 19 19 20 22 26 29 32 35 39 44 51 58 63 59 60 53 60 58 63 58 41 36 39
15 14 14 13 11 12 9 10 13 13 12 13 16 19 21 22 25 26 23 22 22 22 22 23 21 19 18 20 22 24 27 30 35 37 40 46 61 70 63 64 65 65 67 64 62 67 46 42 46
18 17 14 13 11 11 11 10 11 15 16 15 14 17 21 24 27 26 26 26 25 23 23 23 21 18 18 19 21 25 28 31 37 42 50 57 65 70 64 70 78 77 76 63 64 65 58 40 40
20 18 14 11 12 14 13 10 11 10 12 16 16 16 21 24 29 29 28 28 26 24 24 23 22 20 19 20 21 24 27 32 36 46 56 56 58 70 84 86 90 83 81 71 73 66 57 42 45
20 19 15 13 13 13 14 11 12 10 9 11 14 14 16 26 30 31 30 30 27 26 26 24 24 23 22 22 22 22 26 30 38 45 58 73 80 82 85 95 93 89 89 83 78 64 54 43 43
22 20 19 17 17 16 14 12 11 12 11 13 13 17 20 21 23 26 34 33 29 27 27 26 25 25 25 24 25 22 25 31 39 46 61 70 68 72 86 91 93 92 91 90 78 70 56 48 44
26 24 23 22 22 19 16 15 15 14 13 12 13 15 18 18 22 32 38 38 33 29 27 27 26 27 28 27 25 25 26 33 47 52 58 67 68 73 84 90 90 91 87 86 83 70 58 56 48
28 25 23 24 24 21 19 17 17 17 16 15 13 12 16 20 25 32 42 39 38 34 30 31 30 31 31 30 26 28 31 38 57 60 65 68 71 77 78 94 89 88 89 88 81 72 67 67 52
29 27 28 27 23 23 21 17 17 18 17 16 14 13 18 20 22 32 38 42 42 40 34 33 35 36 36 31 27 30 30 39 53 61 67 74 75 76 79 87 86 88 91 93 90 84 75 64 65
30 28 26 26 24 23 22 19 19 18 18 18 16 13 17 17 19 25 32 39 43 42 35 33 38 38 40 34 28 27 31 39 50 56 62 73 78 84 84 78 85 85 93 96 93 87 74 71 62
25 23 22 23 23 21 21 19 15 18 18 17 17 16 15 15 18 22 27 35 38 41 40 35 39 43 41 37 30 29 30 37 46 54 63 71 77 82 81 78 89 85 89 95 95 91 76 72 66
28 26 23 23 21 19 19 16 18 15 15 16 17 17 16 14 17 21 25 30 37 39 39 36 39 45 45 43 33 30 29 34 41 51 59 64 72 79 74 77 80 89 90 98 98 94 76 65 54
23 24 21 19 17 18 20 22 17 14 14 16 15 18 18 15 17 21 24 27 33 36 38 35 39 46 49 48 38 31 27 30 36 43 52 60 63 71 76 77 86 88 92 97 99 96 76 61 54
25 22 21 19 22 22 23 20 20 17 16 17 17 19 19 17 14 21 23 27 32 35 35 37 38 45 49 51 38 30 26 27 33 36 41 48 57 66 71 79 89 89 88 97 97 96 74 60 56
29 26 23 23 24 23 22 22 24 19 20 19 19 18 19 19 14 20 23 27 30 34 37 38 38 47 49 51 40 32 24 28 29 35 40 45 52 60 63 72 88 92 89 96 93 96 76 68 61
31 27 28 28 22 22 23 24 23 18 20 21 20 19 20 21 16 17 24 26 29 33 38 39 46 48 48 51 42 35 24 28 29 34 39 49 55 60 63 66 80 92 94 96 96 94 85 70 67
28 28 25 24 20 22 22 21 22 20 18 18 20 20 20 21 22 18 26 27 31 34 36 44 46 47 49 56 46 34 27 28 32 37 42 48 53 61 68 72 78 94 97 95 96 90 86 72 67
38 31 27 27 25 27 25 25 22 21 19 19 21 22 22 23 25 20 25 28 32 36 35 43 44 47 51 56 44 33 26 29 35 40 48 55 58 63 66 72 90 95 99 98 97 87 86 75 73
30 31 27 32 33 32 33 25 24 21 18 19 19 20 23 24 26 26 23 28 32 33 36 41 44 47 51 52 43 37 27 30 35 43 56 67 70 73 77 84 98 97 97 98 98 97 88 75 71
44 45 41 39 43 38 39 34 28 23 25 25 26 25 25 26 29 27 24 27 30 31 40 41 44 49 52 48 43 39 28 31 35 49 65 76 78 86 90 94 97 99 98 97 98 99 90 75 64
44 47 46 46 46 43 36 44 29 29 32 35 32 32 31 33 36 33 29 23 28 30 36 42 46 53 49 46 46 36 29 32 41 51 65 70 76 87 95 99 98 98 99 99 98 99 92 74 68
52 49 48 54 49 55 34 39 32 39 48 47 46 46 46 47 45 38 32 26 24 27 36 45 49 54 48 47 46 33 30 33 41 51 64 71 77 78 86 94 98 99 97 99 99 97 93 74 74
64 57 48 64 69 44 42 45 36 48 55 57 57 57 59 56 51 45 37 32 28 35 48 50 54 54 45 50 47 31 32 35 42 49 59 69 72 77 78 85 94 99 99 99 98 98 83 73 72
55 45 46 56 55 51 48 47 54 59 61 64 63 63 60 58 57 49 38 39 48 54 53 55 56 53 45 54 47 27 35 37 42 49 53 58 62 69 76 82 91 98 99 98 99 91 87 85 79
63 63 56 63 54 59 40 46 52 58 67 66 67 63 60 60 61 56 46 55 57 59 57 59 58 56 54 54 44 28 36 39 43 49 53 54 55 59 77 81 85 89 96 95 93 92 87 85 83
70 68 75 68 70 63 50 51 62 71 72 71 69 67 66 64 65 60 60 62 62 64 59 60 63 63 61 58 43 30 37 41 44 49 51 51 51 53 57 68 76 89 92 91 94 92 91 91 89
76 78 78 77 74 70 56 57 70 75 76 72 71 73 72 68 67 63 65 64 65 64 64 65 65 68 66 61 45 34 37 40 44 47 48 48 48 52 56 62 72 75 85 90 92 94 95 93 89
74 74 75 74 79 75 80 62 71 81 79 73 78 79 75 71 72 71 72 70 70 69 68 69 66 71 71 67 50 39 40 42 43 47 50 50 51 52 54 56 63 69 75 78 80 84 88 87 86

GFSSGP_prec_cthk_087.txt.gz
RH
10 10 13 14 15 14 11 11 10 10 12 12 12 10 13 18 27 34 36 25 20 20 17 18 17 17 17 19 20 21 25 29 30 31 34 40 44 45 50 52 51 54 54 50 50 47 46 49 52
14 16 16 15 18 14 13 12 11 11 11 16 12 11 12 17 23 28 29 23 20 21 16 17 18 17 17 17 20 22 26 29 30 30 33 37 42 45 58 60 58 59 60 55 52 51 48 47 49
15 18 17 17 15 15 12 13 12 11 13 10 12 16 19 20 24 25 31 22 21 21 20 18 17 17 16 17 18 19 22 25 26 27 31 35 42 46 56 63 68 63 66 56 58 59 58 37 35
18 17 16 16 15 13 14 13 13 13 15 12 14 19 22 23 26 26 30 22 22 24 23 19 19 18 16 15 17 19 22 26 29 29 32 37 51 63 74 79 79 64 64 59 66 67 69 41 32
20 18 16 14 13 12 13 13 11 13 15 16 13 13 19 22 23 27 29 26 25 25 25 20 20 18 15 15 16 18 22 27 29 33 36 53 65 73 76 82 79 66 75 74 85 70 75 48 43
24 20 18 16 15 14 15 14 13 12 12 17 16 14 16 21 25 30 32 31 29 28 22 21 21 20 18 16 16 19 22 26 29 36 43 56 65 68 70 76 80 87 97 93 88 80 74 59 47
24 22 19 17 16 16 16 16 14 12 13 12 11 15 18 23 29 35 34 35 32 31 23 23 22 22 21 19 20 20 22 25 29 38 43 55 65 73 82 81 80 84 85 93 92 86 78 61 47
28 27 24 20 19 17 18 16 14 12 13 13 13 15 18 25 26 26 36 34 34 32 26 24 23 23 23 22 23 25 24 26 27 33 39 48 58 68 72 75 82 84 84 93 89 91 87 71 57
31 30 25 23 21 20 22 20 16 16 15 14 15 15 18 27 24 22 35 37 37 31 31 25 25 25 25 25 25 26 26 27 27 32 42 51 60 69 75 73 78 87 86 88 88 85 86 76 67
33 30 27 26 26 28 26 24 20 20 18 17 16 15 16 17 18 20 29 38 36 36 33 32 25 27 28 30 30 29 29 27 28 35 49 55 63 72 75 76 82 89 88 87 87 88 84 76 72
36 32 29 27 29 30 28 25 21 21 20 19 19 19 17 17 19 17 25 38 38 38 39 33 32 28 29 33 39 39 35 31 35 41 55 64 67 72 79 75 86 90 88 91 91 92 86 76 75
38 36 34 31 29 32 28 25 23 21 21 22 20 19 18 17 19 17 20 27 37 43 38 35 35 30 34 41 41 41 35 32 33 36 49 62 65 68 76 75 73 75 82 87 92 93 90 82 85
35 34 32 31 28 27 26 23 20 19 21 20 19 18 19 19 18 16 17 22 31 43 40 36 37 32 38 39 38 39 37 30 31 39 48 59 72 70 78 78 85 84 84 88 92 96 94 90 87
36 36 34 32 28 28 26 23 21 18 16 17 16 16 18 20 21 18 16 20 27 36 41 37 36 36 37 38 38 39 39 27 33 38 41 58 65 72 73 82 86 81 90 88 91 96 95 92 84
38 38 33 29 24 22 22 22 21 15 15 15 14 14 16 18 18 17 17 21 24 30 38 38 36 38 38 39 42 42 40 30 31 35 36 46 56 66 69 82 77 80 85 92 95 95 98 92 89
33 31 31 23 25 25 22 22 22 22 19 19 15 15 17 18 16 17 16 20 22 28 33 40 38 38 42 45 47 48 41 33 31 32 32 42 52 55 64 72 80 84 85 95 94 98 98 96 93
36 36 36 34 30 29 25 23 23 26 26 22 20 19 18 18 19 20 17 19 25 29 34 40 39 39 43 45 50 55 44 32 30 30 29 35 41 46 53 62 71 79 90 96 88 98 95 96 93
32 32 32 33 32 35 33 27 21 19 21 19 17 17 19 20 20 23 20 21 27 31 37 43 39 39 43 49 54 54 47 33 28 26 27 34 39 43 49 57 61 67 86 94 91 93 96 94 89
49 44 38 37 32 26 29 28 24 17 16 17 14 14 18 21 21 23 21 21 30 36 40 43 37 40 46 52 49 56 51 35 27 25 27 32 38 43 49 59 67 69 81 89 95 95 97 97 89
43 51 39 31 35 35 30 34 33 20 17 15 16 18 19 21 21 24 23 25 30 35 37 40 36 41 49 48 52 58 54 38 28 26 29 34 40 46 53 60 67 72 75 86 96 96 96 94 90
35 32 42 43 38 40 32 32 27 30 23 21 20 20 20 21 24 29 29 27 31 35 36 38 37 43 50 54 55 59 52 39 29 28 31 39 50 59 61 62 65 72 83 92 99 98 98 93 94
49 38 36 40 42 40 47 44 32 32 26 25 25 26 24 23 25 32 32 30 32 34 36 39 41 45 48 54 56 59 48 39 29 30 40 49 64 70 72 73 71 72 81 98 98 99 96 93 92
53 52 53 56 57 50 42 39 29 35 33 42 41 39 37 34 32 33 34 34 34 37 38 40 41 44 50 54 58 58 46 38 33 33 41 53 59 71 80 87 88 80 94 97 97 98 97 94 91
54 58 59 48 51 52 39 39 28 46 58 51 54 53 53 50 46 41 41 41 41 41 42 43 40 48 50 56 62 56 43 35 31 35 44 54 65 71 74 90 94 94 98 98 99 98 96 97 96
58 63 66 64 67 58 48 50 38 62 54 56 60 59 57 58 55 58 59 50 47 47 44 45 38 46 45 57 62 53 41 29 29 41 44 52 63 67 70 75 87 98 98 99 99 99 96 98 97
68 68 67 58 54 63 60 54 48 56 52 55 59 57 58 57 57 57 61 54 48 46 47 42 38 42 50 65 62 48 41 28 32 43 44 50 54 59 69 74 83 95 99 99 98 99 98 98 98
63 67 60 61 50 57 57 43 58 56 56 59 61 58 59 61 58 58 55 55 51 50 43 38 42 50 62 67 58 50 39 29 34 44 46 50 48 51 66 75 81 90 98 98 99 99 99 96 97
61 67 77 70 72 63 46 44 59 81 69 59 57 60 63 61 60 61 62 60 59 52 48 54 61 68 70 69 61 54 39 31 36 40 47 51 49 49 52 59 75 86 91 98 98 98 98 96 90
68 77 81 75 72 70 64 68 77 77 66 61 57 64 64 66 64 70 68 68 67 61 66 65 71 72 74 69 67 60 43 34 37 40 45 47 48 50 53 57 65 75 91 95 93 95 95 95 94
82 74 73 75 66 63 68 71 81 70 64 64 63 67 68 68 68 72 76 73 69 74 73 74 74 74 74 72 70 62 53 40 40 44 45 48 48 50 52 54 61 67 74 86 94 95 95 94 94